Time,TemperatureF,DewpointF,PressureIn,WindDirection,WindDirectionDegrees,WindSpeedMPH,WindSpeedGustMPH,Humidity,HourlyPrecipIn,Conditions,Clouds,dailyrainin,SoftwareType,DateUTC
2013-05-08 00:04:00,35.2,20.7,0.00,SSE,158,0.0,0.0,55,0.00,,---,0.00,VWS V14.00,2013-05-08 06:04:00,
2013-05-08 00:09:00,35.1,20.5,0.00,SSE,167,0.0,0.0,55,0.00,,---,0.00,VWS V14.00,2013-05-08 06:09:00,
2013-05-08 00:13:00,35.1,21.0,0.00,SSE,167,0.0,0.0,56,0.00,,---,0.00,VWS V14.00,2013-05-08 06:13:00,
2013-05-08 00:14:00,35.1,21.0,0.00,SSE,167,0.0,0.0,56,0.00,,---,0.00,VWS V14.00,2013-05-08 06:14:00,
2013-05-08 00:15:00,34.9,20.8,0.00,SSE,167,0.0,0.0,56,0.00,,---,0.00,VWS V14.00,2013-05-08 06:15:00,
2013-05-08 00:19:00,34.9,20.8,0.00,SSW,198,0.0,0.0,56,0.00,,---,0.00,VWS V14.00,2013-05-08 06:19:00,
2013-05-08 00:20:00,34.9,21.2,0.00,SSW,200,0.0,0.0,57,0.00,,---,0.00,VWS V14.00,2013-05-08 06:20:00,
2013-05-08 00:24:00,34.7,21.0,0.00,SSW,193,0.0,0.0,57,0.00,,---,0.00,VWS V14.00,2013-05-08 06:24:00,
2013-05-08 00:25:00,34.7,21.0,0.00,SSW,193,0.0,0.0,57,0.00,,---,0.00,VWS V14.00,2013-05-08 06:25:00,
2013-05-08 00:29:00,34.7,21.0,0.00,SSW,193,0.0,0.0,57,0.00,,---,0.00,VWS V14.00,2013-05-08 06:29:00,
2013-05-08 00:30:00,34.7,21.0,0.00,SSW,194,0.0,0.0,57,0.00,,---,0.00,VWS V14.00,2013-05-08 06:30:00,
2013-05-08 00:34:00,34.5,20.9,0.00,SSW,193,0.0,0.0,57,0.00,,---,0.00,VWS V14.00,2013-05-08 06:34:00,
2013-05-08 00:35:00,34.5,20.9,0.00,SSW,192,0.0,0.0,57,0.00,,---,0.00,VWS V14.00,2013-05-08 06:35:00,
2013-05-08 00:40:00,34.5,21.3,0.00,South,171,0.0,0.0,58,0.00,,---,0.00,VWS V14.00,2013-05-08 06:40:00,
2013-05-08 00:45:00,34.3,21.1,0.00,East,95,0.0,3.6,58,0.00,,---,0.00,VWS V14.00,2013-05-08 06:45:00,
2013-05-08 00:46:00,34.3,21.1,0.00,ESE,105,3.1,3.1,58,0.00,,---,0.00,VWS V14.00,2013-05-08 06:46:00,
2013-05-08 00:50:00,34.3,21.1,0.00,ESE,113,0.0,0.0,58,0.00,,---,0.00,VWS V14.00,2013-05-08 06:50:00,
2013-05-08 00:51:00,34.3,21.1,0.00,ESE,110,0.0,0.0,58,0.00,,---,0.00,VWS V14.00,2013-05-08 06:51:00,
2013-05-08 00:55:00,34.2,20.9,0.00,SSE,167,0.0,0.0,58,0.00,,---,0.00,VWS V14.00,2013-05-08 06:55:00,
2013-05-08 00:56:00,34.2,20.9,0.00,SE,138,4.0,4.0,58,0.00,,---,0.00,VWS V14.00,2013-05-08 06:56:00,
2013-05-08 01:00:00,34.0,21.2,0.00,ESE,114,0.0,3.6,59,0.00,,---,0.00,VWS V14.00,2013-05-08 07:00:00,
2013-05-08 01:01:00,34.0,21.2,0.00,ESE,114,0.0,3.6,59,0.00,,---,0.00,VWS V14.00,2013-05-08 07:01:00,
2013-05-08 01:05:00,34.0,21.2,0.00,SSW,208,0.0,0.0,59,0.00,,---,0.00,VWS V14.00,2013-05-08 07:05:00,
2013-05-08 01:06:00,34.0,21.2,0.00,SSW,208,0.0,0.0,59,0.00,,---,0.00,VWS V14.00,2013-05-08 07:06:00,
2013-05-08 01:10:00,34.0,21.2,0.00,East,95,0.0,0.0,59,0.00,,---,0.00,VWS V14.00,2013-05-08 07:10:00,
2013-05-08 01:11:00,34.0,21.2,0.00,ESE,118,2.2,2.2,59,0.00,,---,0.00,VWS V14.00,2013-05-08 07:11:00,
2013-05-08 01:15:00,33.8,21.0,0.00,ESE,119,0.0,0.0,59,0.00,,---,0.00,VWS V14.00,2013-05-08 07:15:00,
2013-05-08 01:16:00,33.8,21.4,0.00,ESE,118,0.0,0.0,60,0.00,,---,0.00,VWS V14.00,2013-05-08 07:16:00,
2013-05-08 01:20:00,33.8,21.0,0.00,SE,130,0.0,2.7,59,0.00,,---,0.00,VWS V14.00,2013-05-08 07:20:00,
2013-05-08 01:21:00,33.8,21.0,0.00,SE,130,0.0,2.7,59,0.00,,---,0.00,VWS V14.00,2013-05-08 07:21:00,
2013-05-08 01:25:00,33.8,21.0,0.00,ENE,74,2.2,3.1,59,0.00,,---,0.00,VWS V14.00,2013-05-08 07:25:00,
2013-05-08 01:26:00,33.8,21.0,0.00,ENE,75,3.6,3.6,59,0.00,,---,0.00,VWS V14.00,2013-05-08 07:26:00,
2013-05-08 01:31:00,33.6,20.8,0.00,East,80,0.0,0.0,59,0.00,,---,0.00,VWS V14.00,2013-05-08 07:31:00,
2013-05-08 01:36:00,33.6,20.8,0.00,East,80,0.0,0.0,59,0.00,,---,0.00,VWS V14.00,2013-05-08 07:36:00,
2013-05-08 01:37:00,33.6,20.8,0.00,East,80,0.0,0.0,59,0.00,,---,0.00,VWS V14.00,2013-05-08 07:37:00,
2013-05-08 01:41:00,33.6,20.8,0.00,East,80,0.0,0.0,59,0.00,,---,0.00,VWS V14.00,2013-05-08 07:41:00,
2013-05-08 01:42:00,33.6,20.8,0.00,East,80,0.0,0.0,59,0.00,,---,0.00,VWS V14.00,2013-05-08 07:42:00,
2013-05-08 01:46:00,33.4,20.7,0.00,SW,227,0.0,0.0,59,0.00,,---,0.00,VWS V14.00,2013-05-08 07:46:00,
2013-05-08 01:47:00,33.3,20.5,0.00,SW,227,0.0,0.0,59,0.00,,---,0.00,VWS V14.00,2013-05-08 07:47:00,
2013-05-08 01:51:00,33.3,20.9,0.00,South,188,0.0,0.0,60,0.00,,---,0.00,VWS V14.00,2013-05-08 07:51:00,
2013-05-08 01:52:00,33.3,20.9,0.00,SSW,193,0.0,0.0,60,0.00,,---,0.00,VWS V14.00,2013-05-08 07:52:00,
2013-05-08 01:56:00,33.3,20.9,0.00,SSE,157,0.0,0.0,60,0.00,,---,0.00,VWS V14.00,2013-05-08 07:56:00,
2013-05-08 01:57:00,33.3,20.9,0.00,SSE,158,0.0,0.0,60,0.00,,---,0.00,VWS V14.00,2013-05-08 07:57:00,
2013-05-08 02:01:00,33.1,20.7,0.00,SSE,158,0.0,0.0,60,0.00,,---,0.00,VWS V14.00,2013-05-08 08:01:00,
2013-05-08 02:02:00,33.1,20.7,0.00,SSE,155,0.0,0.0,60,0.00,,---,0.00,VWS V14.00,2013-05-08 08:02:00,
2013-05-08 02:06:00,33.1,20.7,0.00,SSE,154,0.0,0.0,60,0.00,,---,0.00,VWS V14.00,2013-05-08 08:06:00,
2013-05-08 02:07:00,33.1,20.7,0.00,SSE,156,0.0,0.0,60,0.00,,---,0.00,VWS V14.00,2013-05-08 08:07:00,
2013-05-08 02:11:00,33.1,20.7,0.00,South,172,0.0,0.0,60,0.00,,---,0.00,VWS V14.00,2013-05-08 08:11:00,
2013-05-08 02:12:00,33.1,20.7,0.00,South,172,0.0,0.0,60,0.00,,---,0.00,VWS V14.00,2013-05-08 08:12:00,
2013-05-08 02:16:00,33.1,20.7,0.00,SE,131,0.0,3.1,60,0.00,,---,0.00,VWS V14.00,2013-05-08 08:16:00,
2013-05-08 02:17:00,33.1,20.7,0.00,SE,129,0.0,0.0,60,0.00,,---,0.00,VWS V14.00,2013-05-08 08:17:00,
2013-05-08 02:21:00,32.9,20.5,0.00,SE,131,0.0,0.0,60,0.00,,---,0.00,VWS V14.00,2013-05-08 08:21:00,
2013-05-08 02:22:00,32.9,20.5,0.00,SE,131,0.0,0.0,60,0.00,,---,0.00,VWS V14.00,2013-05-08 08:22:00,
2013-05-08 02:27:00,32.9,20.5,0.00,ESE,114,0.0,4.0,60,0.00,,---,0.00,VWS V14.00,2013-05-08 08:27:00,
2013-05-08 02:28:00,32.9,20.5,0.00,ESE,105,3.6,3.6,60,0.00,,---,0.00,VWS V14.00,2013-05-08 08:28:00,
2013-05-08 02:32:00,32.9,20.5,0.00,SSE,157,4.0,5.8,60,0.00,,---,0.00,VWS V14.00,2013-05-08 08:32:00,
2013-05-08 02:33:00,32.9,20.5,0.00,SSW,213,0.0,2.7,60,0.00,,---,0.00,VWS V14.00,2013-05-08 08:33:00,
2013-05-08 02:37:00,32.9,20.5,0.00,South,180,0.0,0.0,60,0.00,,---,0.00,VWS V14.00,2013-05-08 08:37:00,
2013-05-08 02:38:00,32.9,20.5,0.00,East,87,3.6,3.6,60,0.00,,---,0.00,VWS V14.00,2013-05-08 08:38:00,
2013-05-08 02:42:00,32.9,20.5,0.00,SE,137,2.2,3.6,60,0.00,,---,0.00,VWS V14.00,2013-05-08 08:42:00,
2013-05-08 02:43:00,32.9,20.5,0.00,SE,137,3.6,3.6,60,0.00,,---,0.00,VWS V14.00,2013-05-08 08:43:00,
2013-05-08 02:47:00,32.9,20.5,0.00,ESE,120,0.0,0.0,60,0.00,,---,0.00,VWS V14.00,2013-05-08 08:47:00,
2013-05-08 02:48:00,32.9,20.5,0.00,SSW,200,0.0,0.0,60,0.00,,---,0.00,VWS V14.00,2013-05-08 08:48:00,
2013-05-08 02:49:00,32.7,20.4,0.00,East,94,3.6,3.6,60,0.00,,---,0.00,VWS V14.00,2013-05-08 08:49:00,
2013-05-08 02:52:00,32.7,20.4,0.00,ESE,108,3.1,4.9,60,0.00,,---,0.00,VWS V14.00,2013-05-08 08:52:00,
2013-05-08 02:53:00,32.7,20.4,0.00,East,99,2.7,4.9,60,0.00,,---,0.00,VWS V14.00,2013-05-08 08:53:00,
2013-05-08 02:54:00,32.7,20.4,0.00,East,89,0.0,2.2,60,0.00,,---,0.00,VWS V14.00,2013-05-08 08:54:00,
2013-05-08 02:57:00,32.7,20.4,0.00,SE,140,2.7,2.7,60,0.00,,---,0.00,VWS V14.00,2013-05-08 08:57:00,
2013-05-08 02:58:00,32.7,20.4,0.00,East,97,3.6,3.6,60,0.00,,---,0.00,VWS V14.00,2013-05-08 08:58:00,
2013-05-08 02:59:00,32.7,20.4,0.00,ENE,60,4.9,4.9,60,0.00,,---,0.00,VWS V14.00,2013-05-08 08:59:00,
2013-05-08 03:02:00,32.7,20.4,0.00,SE,132,3.1,5.4,60,0.00,,---,0.00,VWS V14.00,2013-05-08 09:02:00,
2013-05-08 03:03:00,32.7,20.4,0.00,SE,129,2.2,5.4,60,0.00,,---,0.00,VWS V14.00,2013-05-08 09:03:00,
2013-05-08 03:04:00,32.7,20.4,0.00,ESE,113,3.1,3.1,60,0.00,,---,0.00,VWS V14.00,2013-05-08 09:04:00,
2013-05-08 03:07:00,32.7,20.4,0.00,ESE,105,2.7,3.6,60,0.00,,---,0.00,VWS V14.00,2013-05-08 09:07:00,
2013-05-08 03:08:00,32.7,20.4,0.00,ESE,105,0.0,3.6,60,0.00,,---,0.00,VWS V14.00,2013-05-08 09:08:00,
2013-05-08 03:09:00,32.7,20.4,0.00,SSW,203,0.0,2.7,60,0.00,,---,0.00,VWS V14.00,2013-05-08 09:09:00,
2013-05-08 03:13:00,32.7,20.4,0.00,East,99,0.0,0.0,60,0.00,,---,0.00,VWS V14.00,2013-05-08 09:13:00,
2013-05-08 03:14:00,32.7,20.4,0.00,East,99,0.0,0.0,60,0.00,,---,0.00,VWS V14.00,2013-05-08 09:14:00,
2013-05-08 03:18:00,32.7,20.4,0.00,East,99,0.0,0.0,60,0.00,,---,0.00,VWS V14.00,2013-05-08 09:18:00,
2013-05-08 03:19:00,32.7,20.4,0.00,East,99,0.0,0.0,60,0.00,,---,0.00,VWS V14.00,2013-05-08 09:19:00,
2013-05-08 03:23:00,32.5,20.2,0.00,SSW,206,0.0,0.0,60,0.00,,---,0.00,VWS V14.00,2013-05-08 09:23:00,
2013-05-08 03:24:00,32.5,20.2,0.00,SSW,207,0.0,0.0,60,0.00,,---,0.00,VWS V14.00,2013-05-08 09:24:00,
2013-05-08 03:28:00,32.7,20.0,0.00,SW,235,0.0,0.0,59,0.00,,---,0.00,VWS V14.00,2013-05-08 09:28:00,
2013-05-08 03:29:00,32.7,20.0,0.00,WSW,249,0.0,0.0,59,0.00,,---,0.00,VWS V14.00,2013-05-08 09:29:00,
2013-05-08 03:30:00,32.7,20.0,0.00,WSW,249,0.0,0.0,59,0.00,,---,0.00,VWS V14.00,2013-05-08 09:30:00,
2013-05-08 03:33:00,32.7,20.0,0.00,SSW,206,0.0,0.0,59,0.00,,---,0.00,VWS V14.00,2013-05-08 09:33:00,
2013-05-08 03:34:00,32.5,19.8,0.00,SSW,206,0.0,0.0,59,0.00,,---,0.00,VWS V14.00,2013-05-08 09:34:00,
2013-05-08 03:35:00,32.5,19.8,0.00,SSW,208,0.0,0.0,59,0.00,,---,0.00,VWS V14.00,2013-05-08 09:35:00,
2013-05-08 03:38:00,32.5,19.8,0.00,West,265,0.0,0.0,59,0.00,,---,0.00,VWS V14.00,2013-05-08 09:38:00,
2013-05-08 03:39:00,32.5,19.8,0.00,West,264,0.0,0.0,59,0.00,,---,0.00,VWS V14.00,2013-05-08 09:39:00,
2013-05-08 03:41:00,32.5,19.8,0.00,SW,219,2.2,2.2,59,0.00,,---,0.00,VWS V14.00,2013-05-08 09:41:00,
2013-05-08 03:43:00,32.5,19.8,0.00,ENE,73,0.0,0.0,59,0.00,,---,0.00,VWS V14.00,2013-05-08 09:43:00,
2013-05-08 03:44:00,32.5,19.8,0.00,ENE,73,0.0,0.0,59,0.00,,---,0.00,VWS V14.00,2013-05-08 09:44:00,
2013-05-08 03:46:00,32.5,19.8,0.00,ESE,108,0.0,0.0,59,0.00,,---,0.00,VWS V14.00,2013-05-08 09:46:00,
2013-05-08 03:49:00,32.5,19.8,0.00,ESE,107,0.0,0.0,59,0.00,,---,0.00,VWS V14.00,2013-05-08 09:49:00,
2013-05-08 03:51:00,32.5,19.8,0.00,ESE,112,0.0,0.0,59,0.00,,---,0.00,VWS V14.00,2013-05-08 09:51:00,
2013-05-08 03:54:00,32.5,19.8,0.00,ESE,112,0.0,0.0,59,0.00,,---,0.00,VWS V14.00,2013-05-08 09:54:00,
2013-05-08 03:56:00,32.5,19.4,0.00,ESE,111,0.0,0.0,58,0.00,,---,0.00,VWS V14.00,2013-05-08 09:56:00,
2013-05-08 03:59:00,32.5,19.4,0.00,ESE,109,0.0,0.0,58,0.00,,---,0.00,VWS V14.00,2013-05-08 09:59:00,
2013-05-08 04:00:00,32.5,19.4,0.00,ESE,115,0.0,0.0,58,0.00,,---,0.00,VWS V14.00,2013-05-08 10:00:00,
2013-05-08 04:01:00,32.4,19.2,0.00,SE,146,0.0,2.2,58,0.00,,---,0.00,VWS V14.00,2013-05-08 10:01:00,
2013-05-08 04:04:00,32.4,19.2,0.00,South,176,0.0,0.0,58,0.00,,---,0.00,VWS V14.00,2013-05-08 10:04:00,
2013-05-08 04:05:00,32.4,19.2,0.00,SSE,153,0.0,0.0,58,0.00,,---,0.00,VWS V14.00,2013-05-08 10:05:00,
2013-05-08 04:06:00,32.4,19.2,0.00,SSE,156,0.0,0.0,58,0.00,,---,0.00,VWS V14.00,2013-05-08 10:06:00,
2013-05-08 04:09:00,32.4,19.2,0.00,SE,133,0.0,0.0,58,0.00,,---,0.00,VWS V14.00,2013-05-08 10:09:00,
2013-05-08 04:10:00,32.4,19.2,0.00,SE,135,0.0,0.0,58,0.00,,---,0.00,VWS V14.00,2013-05-08 10:10:00,
2013-05-08 04:11:00,32.4,19.2,0.00,ESE,114,0.0,2.7,58,0.00,,---,0.00,VWS V14.00,2013-05-08 10:11:00,
2013-05-08 04:14:00,32.4,19.2,0.00,SE,143,0.0,0.0,58,0.00,,---,0.00,VWS V14.00,2013-05-08 10:14:00,
2013-05-08 04:15:00,32.4,19.2,0.00,SE,143,0.0,0.0,58,0.00,,---,0.00,VWS V14.00,2013-05-08 10:15:00,
2013-05-08 04:16:00,32.4,19.2,0.00,SE,143,0.0,0.0,58,0.00,,---,0.00,VWS V14.00,2013-05-08 10:16:00,
2013-05-08 04:19:00,32.4,19.2,0.00,East,92,2.7,3.6,58,0.00,,---,0.00,VWS V14.00,2013-05-08 10:19:00,
2013-05-08 04:20:00,32.4,19.2,0.00,East,95,0.0,3.6,58,0.00,,---,0.00,VWS V14.00,2013-05-08 10:20:00,
2013-05-08 04:21:00,32.4,19.2,0.00,East,98,0.0,0.0,58,0.00,,---,0.00,VWS V14.00,2013-05-08 10:21:00,
2013-05-08 04:24:00,32.4,19.2,0.00,SE,125,0.0,2.7,58,0.00,,---,0.00,VWS V14.00,2013-05-08 10:24:00,
2013-05-08 04:25:00,32.4,19.2,0.00,SE,125,0.0,2.7,58,0.00,,---,0.00,VWS V14.00,2013-05-08 10:25:00,
2013-05-08 04:26:00,32.4,19.2,0.00,SE,125,0.0,0.0,58,0.00,,---,0.00,VWS V14.00,2013-05-08 10:26:00,
2013-05-08 04:29:00,32.4,19.2,0.00,SE,139,0.0,0.0,58,0.00,,---,0.00,VWS V14.00,2013-05-08 10:29:00,
2013-05-08 04:30:00,32.4,19.2,0.00,SE,139,0.0,0.0,58,0.00,,---,0.00,VWS V14.00,2013-05-08 10:30:00,
2013-05-08 04:31:00,32.4,19.2,0.00,ESE,118,2.7,2.7,58,0.00,,---,0.00,VWS V14.00,2013-05-08 10:31:00,
2013-05-08 04:34:00,32.4,19.2,0.00,ESE,115,0.0,0.0,58,0.00,,---,0.00,VWS V14.00,2013-05-08 10:34:00,
2013-05-08 04:35:00,32.4,19.2,0.00,ESE,113,0.0,0.0,58,0.00,,---,0.00,VWS V14.00,2013-05-08 10:35:00,
2013-05-08 04:36:00,32.4,19.2,0.00,ESE,114,5.8,6.7,58,0.00,,---,0.00,VWS V14.00,2013-05-08 10:36:00,
2013-05-08 04:40:00,32.4,19.2,0.00,East,98,0.0,3.1,58,0.00,,---,0.00,VWS V14.00,2013-05-08 10:40:00,
2013-05-08 04:41:00,32.4,19.2,0.00,East,99,0.0,0.0,58,0.00,,---,0.00,VWS V14.00,2013-05-08 10:41:00,
2013-05-08 04:45:00,32.5,19.4,0.00,SSE,152,2.2,3.1,58,0.00,,---,0.00,VWS V14.00,2013-05-08 10:45:00,
2013-05-08 04:46:00,32.5,19.4,0.00,ENE,61,3.1,3.1,58,0.00,,---,0.00,VWS V14.00,2013-05-08 10:46:00,
2013-05-08 04:50:00,32.5,19.4,0.00,SE,124,2.7,2.7,58,0.00,,---,0.00,VWS V14.00,2013-05-08 10:50:00,
2013-05-08 04:52:00,32.5,19.4,0.00,ESE,122,0.0,2.7,58,0.00,,---,0.00,VWS V14.00,2013-05-08 10:52:00,
2013-05-08 04:55:00,32.5,19.4,0.00,East,99,0.0,0.0,58,0.00,,---,0.00,VWS V14.00,2013-05-08 10:55:00,
2013-05-08 04:57:00,32.5,19.4,0.00,SSW,197,0.0,0.0,58,0.00,,---,0.00,VWS V14.00,2013-05-08 10:57:00,
2013-05-08 05:00:00,32.5,19.4,0.00,East,87,3.1,3.1,58,0.00,,---,0.00,VWS V14.00,2013-05-08 11:00:00,
2013-05-08 05:01:00,32.5,19.4,0.00,East,88,0.0,3.1,58,0.00,,---,0.00,VWS V14.00,2013-05-08 11:01:00,
2013-05-08 05:02:00,32.5,19.4,0.00,SSW,197,0.0,0.0,58,0.00,,---,0.00,VWS V14.00,2013-05-08 11:02:00,
2013-05-08 05:05:00,32.5,19.8,0.00,South,181,0.0,2.7,59,0.00,,---,0.00,VWS V14.00,2013-05-08 11:05:00,
2013-05-08 05:06:00,32.5,19.8,0.00,South,190,0.0,0.0,59,0.00,,---,0.00,VWS V14.00,2013-05-08 11:06:00,
2013-05-08 05:07:00,32.5,19.8,0.00,South,191,0.0,0.0,59,0.00,,---,0.00,VWS V14.00,2013-05-08 11:07:00,
2013-05-08 05:10:00,32.7,20.0,0.00,SSW,193,0.0,0.0,59,0.00,,---,0.00,VWS V14.00,2013-05-08 11:10:00,
2013-05-08 05:11:00,32.7,20.0,0.00,SSW,193,0.0,0.0,59,0.00,,---,0.00,VWS V14.00,2013-05-08 11:11:00,
2013-05-08 05:12:00,32.7,20.0,0.00,SSW,193,0.0,0.0,59,0.00,,---,0.00,VWS V14.00,2013-05-08 11:12:00,
2013-05-08 05:15:00,32.7,20.0,0.00,South,188,0.0,0.0,59,0.00,,---,0.00,VWS V14.00,2013-05-08 11:15:00,
2013-05-08 05:16:00,32.7,20.0,0.00,South,188,0.0,0.0,59,0.00,,---,0.00,VWS V14.00,2013-05-08 11:16:00,
2013-05-08 05:17:00,32.7,20.0,0.00,South,184,0.0,0.0,59,0.00,,---,0.00,VWS V14.00,2013-05-08 11:17:00,
2013-05-08 05:21:00,32.7,19.6,0.00,SSE,150,3.6,3.6,58,0.00,,---,0.00,VWS V14.00,2013-05-08 11:21:00,
2013-05-08 05:22:00,32.7,19.6,0.00,SSW,205,0.0,0.0,58,0.00,,---,0.00,VWS V14.00,2013-05-08 11:22:00,
2013-05-08 05:26:00,32.7,19.6,0.00,SSE,158,0.0,0.0,58,0.00,,---,0.00,VWS V14.00,2013-05-08 11:26:00,
2013-05-08 05:27:00,32.7,19.6,0.00,SSE,154,0.0,0.0,58,0.00,,---,0.00,VWS V14.00,2013-05-08 11:27:00,
2013-05-08 05:31:00,32.7,19.6,0.00,SE,139,0.0,0.0,58,0.00,,---,0.00,VWS V14.00,2013-05-08 11:31:00,
2013-05-08 05:32:00,32.7,19.6,0.00,SE,143,0.0,0.0,58,0.00,,---,0.00,VWS V14.00,2013-05-08 11:32:00,
2013-05-08 05:36:00,32.7,19.6,0.00,SE,124,0.0,0.0,58,0.00,,---,0.00,VWS V14.00,2013-05-08 11:36:00,
2013-05-08 05:37:00,32.7,19.6,0.00,SE,124,0.0,2.2,58,0.00,,---,0.00,VWS V14.00,2013-05-08 11:37:00,
2013-05-08 05:41:00,32.9,19.8,0.00,SE,133,0.0,0.0,58,0.00,,---,0.00,VWS V14.00,2013-05-08 11:41:00,
2013-05-08 05:42:00,32.9,19.8,0.00,ESE,109,2.2,2.7,58,0.00,,---,0.00,VWS V14.00,2013-05-08 11:42:00,
2013-05-08 05:46:00,32.9,19.8,0.00,South,174,0.0,0.0,58,0.00,,---,0.00,VWS V14.00,2013-05-08 11:46:00,
2013-05-08 05:47:00,32.9,19.8,0.00,ESE,114,0.0,0.0,58,0.00,,---,0.00,VWS V14.00,2013-05-08 11:47:00,
2013-05-08 05:51:00,33.1,20.3,0.00,ESE,109,0.0,0.0,59,0.00,,---,0.00,VWS V14.00,2013-05-08 11:51:00,
2013-05-08 05:52:00,33.1,20.3,0.00,ESE,109,0.0,0.0,59,0.00,,---,0.00,VWS V14.00,2013-05-08 11:52:00,
2013-05-08 05:56:00,33.1,20.3,0.00,ESE,113,6.3,6.3,59,0.00,,---,0.00,VWS V14.00,2013-05-08 11:56:00,
2013-05-08 05:57:00,33.1,20.3,0.00,ESE,113,5.8,6.3,59,0.00,,---,0.00,VWS V14.00,2013-05-08 11:57:00,
2013-05-08 05:58:00,33.1,20.3,0.00,East,90,3.1,4.0,59,0.00,,---,0.00,VWS V14.00,2013-05-08 11:58:00,
2013-05-08 06:02:00,33.1,20.3,0.00,SE,124,3.1,4.0,59,0.00,,---,0.00,VWS V14.00,2013-05-08 12:02:00,
2013-05-08 06:03:00,33.1,20.3,0.00,ESE,106,2.2,2.2,59,0.00,,---,0.00,VWS V14.00,2013-05-08 12:03:00,
2013-05-08 06:07:00,33.3,20.5,0.00,ESE,118,2.2,4.0,59,0.00,,---,0.00,VWS V14.00,2013-05-08 12:07:00,
2013-05-08 06:08:00,33.3,20.5,0.00,SE,141,3.1,3.1,59,0.00,,---,0.00,VWS V14.00,2013-05-08 12:08:00,
2013-05-08 06:12:00,33.3,20.5,0.00,SE,145,0.0,3.1,59,0.00,,---,0.00,VWS V14.00,2013-05-08 12:12:00,
2013-05-08 06:13:00,33.3,20.5,0.00,ESE,111,2.7,2.7,59,0.00,,---,0.00,VWS V14.00,2013-05-08 12:13:00,
2013-05-08 06:17:00,33.3,20.5,0.00,East,79,5.8,5.8,59,0.00,,---,0.00,VWS V14.00,2013-05-08 12:17:00,
2013-05-08 06:18:00,33.3,20.5,0.00,SE,144,0.0,2.7,59,0.00,,---,0.00,VWS V14.00,2013-05-08 12:18:00,
2013-05-08 06:22:00,33.3,20.5,0.00,SE,146,0.0,0.0,59,0.00,,---,0.00,VWS V14.00,2013-05-08 12:22:00,
2013-05-08 06:24:00,33.3,20.5,0.00,East,89,2.2,3.6,59,0.00,,---,0.00,VWS V14.00,2013-05-08 12:24:00,
2013-05-08 06:27:00,33.3,20.5,0.00,ESE,106,3.6,4.0,59,0.00,,---,0.00,VWS V14.00,2013-05-08 12:27:00,
2013-05-08 06:29:00,33.3,20.5,0.00,East,99,0.0,3.1,59,0.00,,---,0.00,VWS V14.00,2013-05-08 12:29:00,
2013-05-08 06:32:00,33.3,20.5,0.00,ESE,112,0.0,0.0,59,0.00,,---,0.00,VWS V14.00,2013-05-08 12:32:00,
2013-05-08 06:33:00,33.3,20.5,0.00,ESE,109,0.0,0.0,59,0.00,,---,0.00,VWS V14.00,2013-05-08 12:33:00,
2013-05-08 06:34:00,33.3,20.5,0.00,ESE,110,0.0,0.0,59,0.00,,---,0.00,VWS V14.00,2013-05-08 12:34:00,
2013-05-08 06:37:00,33.3,20.5,0.00,ESE,118,0.0,0.0,59,0.00,,---,0.00,VWS V14.00,2013-05-08 12:37:00,
2013-05-08 06:38:00,33.3,20.5,0.00,ESE,118,0.0,0.0,59,0.00,,---,0.00,VWS V14.00,2013-05-08 12:38:00,
2013-05-08 06:39:00,33.3,20.5,0.00,ESE,119,0.0,0.0,59,0.00,,---,0.00,VWS V14.00,2013-05-08 12:39:00,
2013-05-08 06:42:00,33.4,20.7,0.00,SE,132,0.0,0.0,59,0.00,,---,0.00,VWS V14.00,2013-05-08 12:42:00,
2013-05-08 06:43:00,33.4,20.7,0.00,SE,133,0.0,0.0,59,0.00,,---,0.00,VWS V14.00,2013-05-08 12:43:00,
2013-05-08 06:44:00,33.4,20.7,0.00,SE,133,0.0,0.0,59,0.00,,---,0.00,VWS V14.00,2013-05-08 12:44:00,
2013-05-08 06:47:00,33.4,20.7,0.00,ESE,118,0.0,0.0,59,0.00,,---,0.00,VWS V14.00,2013-05-08 12:47:00,
2013-05-08 06:48:00,33.4,20.7,0.00,ESE,118,0.0,0.0,59,0.00,,---,0.00,VWS V14.00,2013-05-08 12:48:00,
2013-05-08 06:49:00,33.4,20.7,0.00,ESE,118,0.0,0.0,59,0.00,,---,0.00,VWS V14.00,2013-05-08 12:49:00,
2013-05-08 06:52:00,33.4,21.1,0.00,SE,143,0.0,0.0,60,0.00,,---,0.00,VWS V14.00,2013-05-08 12:52:00,
2013-05-08 06:53:00,33.6,21.2,0.00,South,191,0.0,0.0,60,0.00,,---,0.00,VWS V14.00,2013-05-08 12:53:00,
2013-05-08 06:54:00,33.6,21.2,0.00,SSW,192,0.0,0.0,60,0.00,,---,0.00,VWS V14.00,2013-05-08 12:54:00,
2013-05-08 06:57:00,33.6,21.2,0.00,SSW,195,0.0,0.0,60,0.00,,---,0.00,VWS V14.00,2013-05-08 12:57:00,
2013-05-08 06:58:00,33.8,21.4,0.00,SSW,196,0.0,0.0,60,0.00,,---,0.00,VWS V14.00,2013-05-08 12:58:00,
2013-05-08 06:59:00,33.8,21.4,0.00,SSW,195,0.0,0.0,60,0.00,,---,0.00,VWS V14.00,2013-05-08 12:59:00,
2013-05-08 07:02:00,33.8,21.4,0.00,SSW,196,0.0,0.0,60,0.00,,---,0.00,VWS V14.00,2013-05-08 13:02:00,
2013-05-08 07:03:00,33.8,21.4,0.00,SSW,196,0.0,0.0,60,0.00,,---,0.00,VWS V14.00,2013-05-08 13:03:00,
2013-05-08 07:04:00,33.8,21.4,0.00,SSW,196,0.0,0.0,60,0.00,,---,0.00,VWS V14.00,2013-05-08 13:04:00,
2013-05-08 07:05:00,33.8,21.4,0.00,SSW,196,0.0,0.0,60,0.00,,---,0.00,VWS V14.00,2013-05-08 13:05:00,
2013-05-08 07:07:00,34.0,21.6,0.00,SSW,196,0.0,0.0,60,0.00,,---,0.00,VWS V14.00,2013-05-08 13:07:00,
2013-05-08 07:08:00,34.0,21.6,0.00,South,191,0.0,0.0,60,0.00,,---,0.00,VWS V14.00,2013-05-08 13:08:00,
2013-05-08 07:09:00,34.0,21.6,0.00,SSW,196,0.0,0.0,60,0.00,,---,0.00,VWS V14.00,2013-05-08 13:09:00,
2013-05-08 07:10:00,34.0,21.6,0.00,SSW,194,0.0,0.0,60,0.00,,---,0.00,VWS V14.00,2013-05-08 13:10:00,
2013-05-08 07:12:00,34.0,21.6,0.00,South,190,0.0,0.0,60,0.00,,---,0.00,VWS V14.00,2013-05-08 13:12:00,
2013-05-08 07:13:00,34.0,21.6,0.00,SSW,195,0.0,0.0,60,0.00,,---,0.00,VWS V14.00,2013-05-08 13:13:00,
2013-05-08 07:14:00,34.0,21.6,0.00,SSW,196,0.0,0.0,60,0.00,,---,0.00,VWS V14.00,2013-05-08 13:14:00,
2013-05-08 07:15:00,34.0,21.6,0.00,SSW,196,0.0,0.0,60,0.00,,---,0.00,VWS V14.00,2013-05-08 13:15:00,
2013-05-08 07:18:00,34.0,21.6,0.00,SSW,196,0.0,0.0,60,0.00,,---,0.00,VWS V14.00,2013-05-08 13:18:00,
2013-05-08 07:19:00,34.2,21.7,0.00,SSW,196,0.0,0.0,60,0.00,,---,0.00,VWS V14.00,2013-05-08 13:19:00,
2013-05-08 07:20:00,34.2,22.1,0.00,SSW,196,0.0,0.0,61,0.00,,---,0.00,VWS V14.00,2013-05-08 13:20:00,
2013-05-08 07:23:00,34.3,22.3,0.00,SSW,196,0.0,0.0,61,0.00,,---,0.00,VWS V14.00,2013-05-08 13:23:00,
2013-05-08 07:24:00,34.3,22.3,0.00,SSW,196,0.0,0.0,61,0.00,,---,0.00,VWS V14.00,2013-05-08 13:24:00,
2013-05-08 07:25:00,34.3,22.3,0.00,SSW,195,0.0,0.0,61,0.00,,---,0.00,VWS V14.00,2013-05-08 13:25:00,
2013-05-08 07:28:00,34.3,22.3,0.00,SSW,196,0.0,0.0,61,0.00,,---,0.00,VWS V14.00,2013-05-08 13:28:00,
2013-05-08 07:29:00,34.3,21.9,0.00,SSW,196,0.0,0.0,60,0.00,,---,0.00,VWS V14.00,2013-05-08 13:29:00,
2013-05-08 07:30:00,34.3,21.9,0.00,SSW,195,0.0,0.0,60,0.00,,---,0.00,VWS V14.00,2013-05-08 13:30:00,
2013-05-08 07:31:00,34.3,21.9,0.00,SSW,196,0.0,0.0,60,0.00,,---,0.00,VWS V14.00,2013-05-08 13:31:00,
2013-05-08 07:33:00,34.3,22.3,0.00,SSW,196,0.0,0.0,61,0.00,,---,0.00,VWS V14.00,2013-05-08 13:33:00,
2013-05-08 07:34:00,34.3,22.3,0.00,SSW,196,0.0,0.0,61,0.00,,---,0.00,VWS V14.00,2013-05-08 13:34:00,
2013-05-08 07:35:00,34.3,22.3,0.00,SSW,195,0.0,0.0,61,0.00,,---,0.00,VWS V14.00,2013-05-08 13:35:00,
2013-05-08 07:36:00,34.3,21.9,0.00,SSW,196,0.0,0.0,60,0.00,,---,0.00,VWS V14.00,2013-05-08 13:36:00,
2013-05-08 07:38:00,34.5,22.1,0.00,SSW,196,0.0,0.0,60,0.00,,---,0.00,VWS V14.00,2013-05-08 13:38:00,
2013-05-08 07:39:00,34.5,22.5,0.00,SSW,196,0.0,0.0,61,0.00,,---,0.00,VWS V14.00,2013-05-08 13:39:00,
2013-05-08 07:40:00,34.5,22.5,0.00,SSW,196,0.0,0.0,61,0.00,,---,0.00,VWS V14.00,2013-05-08 13:40:00,
2013-05-08 07:41:00,34.5,22.5,0.00,SSW,196,0.0,0.0,61,0.00,,---,0.00,VWS V14.00,2013-05-08 13:41:00,
2013-05-08 07:43:00,34.5,22.5,0.00,SSW,196,0.0,0.0,61,0.00,,---,0.00,VWS V14.00,2013-05-08 13:43:00,
2013-05-08 07:44:00,34.5,22.5,0.00,SSW,195,0.0,0.0,61,0.00,,---,0.00,VWS V14.00,2013-05-08 13:44:00,
2013-05-08 07:45:00,34.5,22.5,0.00,SSW,196,0.0,0.0,61,0.00,,---,0.00,VWS V14.00,2013-05-08 13:45:00,
2013-05-08 07:46:00,34.5,22.5,0.00,SSW,193,0.0,0.0,61,0.00,,---,0.00,VWS V14.00,2013-05-08 13:46:00,
2013-05-08 07:48:00,34.7,22.6,0.00,SSW,196,0.0,0.0,61,0.00,,---,0.00,VWS V14.00,2013-05-08 13:48:00,
2013-05-08 07:50:00,34.7,22.6,0.00,SSW,192,0.0,0.0,61,0.00,,---,0.00,VWS V14.00,2013-05-08 13:50:00,
2013-05-08 07:51:00,34.7,22.6,0.00,SSW,196,0.0,0.0,61,0.00,,---,0.00,VWS V14.00,2013-05-08 13:51:00,
2013-05-08 07:53:00,34.7,22.2,0.00,SSW,196,0.0,0.0,60,0.00,,---,0.00,VWS V14.00,2013-05-08 13:53:00,
2013-05-08 07:55:00,34.9,22.4,0.00,SSW,196,0.0,0.0,60,0.00,,---,0.00,VWS V14.00,2013-05-08 13:55:00,
2013-05-08 07:56:00,34.9,22.8,0.00,SSW,194,0.0,0.0,61,0.00,,---,0.00,VWS V14.00,2013-05-08 13:56:00,
2013-05-08 07:58:00,34.9,22.8,0.00,SSW,196,0.0,0.0,61,0.00,,---,0.00,VWS V14.00,2013-05-08 13:58:00,
2013-05-08 08:00:00,34.9,22.8,0.00,SSW,196,0.0,0.0,61,0.00,,---,0.00,VWS V14.00,2013-05-08 14:00:00,
2013-05-08 08:01:00,34.9,22.8,0.00,SSW,195,0.0,0.0,61,0.00,,---,0.00,VWS V14.00,2013-05-08 14:01:00,
2013-05-08 08:03:00,35.1,22.6,0.00,SSW,192,0.0,0.0,60,0.00,,---,0.00,VWS V14.00,2013-05-08 14:03:00,
2013-05-08 08:05:00,35.1,22.6,0.00,SSW,192,0.0,0.0,60,0.00,,---,0.00,VWS V14.00,2013-05-08 14:05:00,
2013-05-08 08:06:00,35.1,22.6,0.00,SSW,196,0.0,0.0,60,0.00,,---,0.00,VWS V14.00,2013-05-08 14:06:00,
2013-05-08 08:08:00,35.1,22.6,0.00,SSW,192,0.0,0.0,60,0.00,,---,0.00,VWS V14.00,2013-05-08 14:08:00,
2013-05-08 08:10:00,35.1,22.6,0.00,SSW,196,0.0,0.0,60,0.00,,---,0.00,VWS V14.00,2013-05-08 14:10:00,
2013-05-08 08:11:00,35.1,22.6,0.00,SSW,196,0.0,0.0,60,0.00,,---,0.00,VWS V14.00,2013-05-08 14:11:00,
2013-05-08 08:14:00,35.2,22.4,0.00,SSW,196,0.0,0.0,59,0.00,,---,0.00,VWS V14.00,2013-05-08 14:14:00,
2013-05-08 08:15:00,35.2,22.4,0.00,SSW,196,0.0,0.0,59,0.00,,---,0.00,VWS V14.00,2013-05-08 14:15:00,
2013-05-08 08:16:00,35.2,22.4,0.00,SSW,196,0.0,0.0,59,0.00,,---,0.00,VWS V14.00,2013-05-08 14:16:00,
2013-05-08 08:17:00,35.2,22.4,0.00,South,190,0.0,0.0,59,0.00,,---,0.00,VWS V14.00,2013-05-08 14:17:00,
2013-05-08 08:19:00,35.4,22.5,0.00,SSW,192,0.0,0.0,59,0.00,,---,0.00,VWS V14.00,2013-05-08 14:19:00,
2013-05-08 08:20:00,35.4,22.5,0.00,South,190,0.0,0.0,59,0.00,,---,0.00,VWS V14.00,2013-05-08 14:20:00,
2013-05-08 08:21:00,35.4,22.5,0.00,SSW,196,0.0,0.0,59,0.00,,---,0.00,VWS V14.00,2013-05-08 14:21:00,
2013-05-08 08:22:00,35.4,22.5,0.00,SSW,196,0.0,0.0,59,0.00,,---,0.00,VWS V14.00,2013-05-08 14:22:00,
2013-05-08 08:24:00,35.4,22.5,0.00,SSW,196,0.0,0.0,59,0.00,,---,0.00,VWS V14.00,2013-05-08 14:24:00,
2013-05-08 08:26:00,35.4,22.5,0.00,SSW,194,0.0,0.0,59,0.00,,---,0.00,VWS V14.00,2013-05-08 14:26:00,
2013-05-08 08:27:00,35.4,22.9,0.00,SSW,196,0.0,0.0,60,0.00,,---,0.00,VWS V14.00,2013-05-08 14:27:00,
2013-05-08 08:29:00,35.6,22.7,0.00,SSW,196,0.0,0.0,59,0.00,,---,0.00,VWS V14.00,2013-05-08 14:29:00,
2013-05-08 08:31:00,35.6,23.1,0.00,SSW,196,0.0,0.0,60,0.00,,---,0.00,VWS V14.00,2013-05-08 14:31:00,
2013-05-08 08:32:00,35.6,23.1,0.00,SSW,196,0.0,0.0,60,0.00,,---,0.00,VWS V14.00,2013-05-08 14:32:00,
2013-05-08 08:34:00,35.8,23.7,0.00,SSW,196,0.0,0.0,61,0.00,,---,0.00,VWS V14.00,2013-05-08 14:34:00,
2013-05-08 08:36:00,35.8,24.0,0.00,SSW,196,0.0,0.0,62,0.00,,---,0.00,VWS V14.00,2013-05-08 14:36:00,
2013-05-08 08:37:00,35.8,24.0,0.00,SSW,196,0.0,0.0,62,0.00,,---,0.00,VWS V14.00,2013-05-08 14:37:00,
2013-05-08 08:39:00,36.0,24.2,0.00,SSW,196,0.0,0.0,62,0.00,,---,0.00,VWS V14.00,2013-05-08 14:39:00,
2013-05-08 08:41:00,36.0,24.2,0.00,SSW,196,0.0,0.0,62,0.00,,---,0.00,VWS V14.00,2013-05-08 14:41:00,
2013-05-08 08:42:00,36.0,24.2,0.00,SSW,196,0.0,0.0,62,0.00,,---,0.00,VWS V14.00,2013-05-08 14:42:00,
2013-05-08 08:44:00,36.0,23.8,0.00,SSW,196,0.0,0.0,61,0.00,,---,0.00,VWS V14.00,2013-05-08 14:44:00,
2013-05-08 08:46:00,36.1,24.0,0.00,SSW,196,0.0,0.0,61,0.00,,---,0.00,VWS V14.00,2013-05-08 14:46:00,
2013-05-08 08:47:00,36.1,24.0,0.00,SSW,196,0.0,0.0,61,0.00,,---,0.00,VWS V14.00,2013-05-08 14:47:00,
2013-05-08 08:49:00,36.1,24.4,0.00,SSW,197,0.0,0.0,62,0.00,,---,0.00,VWS V14.00,2013-05-08 14:49:00,
2013-05-08 08:51:00,36.1,24.0,0.00,SSW,199,0.0,2.2,61,0.00,,---,0.00,VWS V14.00,2013-05-08 14:51:00,
2013-05-08 08:52:00,36.1,24.0,0.00,SSW,199,0.0,2.2,61,0.00,,---,0.00,VWS V14.00,2013-05-08 14:52:00,
2013-05-08 08:54:00,36.1,24.0,0.00,SSW,199,0.0,0.0,61,0.00,,---,0.00,VWS V14.00,2013-05-08 14:54:00,
2013-05-08 08:56:00,36.1,24.0,0.00,West,262,0.0,0.0,61,0.00,,---,0.00,VWS V14.00,2013-05-08 14:56:00,
2013-05-08 08:57:00,36.1,24.0,0.00,West,262,0.0,0.0,61,0.00,,---,0.00,VWS V14.00,2013-05-08 14:57:00,
2013-05-08 09:00:00,36.1,24.4,0.00,WSW,247,0.0,0.0,62,0.00,,---,0.00,VWS V14.00,2013-05-08 15:00:00,
2013-05-08 09:02:00,36.1,24.8,0.00,WSW,247,0.0,0.0,63,0.00,,---,0.00,VWS V14.00,2013-05-08 15:02:00,
2013-05-08 09:05:00,36.1,25.1,0.00,WSW,246,0.0,0.0,64,0.00,,---,0.00,VWS V14.00,2013-05-08 15:05:00,
2013-05-08 09:07:00,36.1,25.1,0.00,WSW,247,0.0,0.0,64,0.00,,---,0.00,VWS V14.00,2013-05-08 15:07:00,
2013-05-08 09:10:00,36.0,26.1,0.00,WSW,247,0.0,0.0,67,0.00,,---,0.00,VWS V14.00,2013-05-08 15:10:00,
2013-05-08 09:12:00,36.0,26.4,0.00,WSW,241,0.0,0.0,68,0.00,,---,0.00,VWS V14.00,2013-05-08 15:12:00,
2013-05-08 09:15:00,35.8,26.6,0.00,SW,215,0.0,0.0,69,0.00,,---,0.00,VWS V14.00,2013-05-08 15:15:00,
2013-05-08 09:17:00,35.8,27.0,0.00,SW,217,0.0,0.0,70,0.00,,---,0.00,VWS V14.00,2013-05-08 15:17:00,
2013-05-08 09:18:00,35.8,27.0,0.00,SSW,213,0.0,0.0,70,0.00,,---,0.00,VWS V14.00,2013-05-08 15:18:00,
2013-05-08 09:20:00,35.6,27.1,0.00,SW,219,0.0,0.0,71,0.00,,---,0.00,VWS V14.00,2013-05-08 15:20:00,
2013-05-08 09:22:00,35.6,27.1,0.00,SW,219,0.0,0.0,71,0.00,,---,0.00,VWS V14.00,2013-05-08 15:22:00,
2013-05-08 09:23:00,35.6,27.1,0.00,SW,219,0.0,0.0,71,0.00,,---,0.00,VWS V14.00,2013-05-08 15:23:00,
2013-05-08 09:25:00,35.4,27.0,0.00,SW,219,0.0,0.0,71,0.00,,---,0.00,VWS V14.00,2013-05-08 15:25:00,
2013-05-08 09:27:00,35.4,27.3,0.00,SW,216,0.0,0.0,72,0.00,,---,0.00,VWS V14.00,2013-05-08 15:27:00,
2013-05-08 09:28:00,35.4,27.3,0.00,SW,218,0.0,0.0,72,0.00,,---,0.00,VWS V14.00,2013-05-08 15:28:00,
2013-05-08 09:30:00,35.2,27.1,0.00,SW,219,0.0,0.0,72,0.00,,---,0.00,VWS V14.00,2013-05-08 15:30:00,
2013-05-08 09:32:00,35.2,27.1,0.00,SW,218,0.0,0.0,72,0.00,,---,0.00,VWS V14.00,2013-05-08 15:32:00,
2013-05-08 09:33:00,35.2,27.1,0.00,SW,218,0.0,0.0,72,0.00,,---,0.00,VWS V14.00,2013-05-08 15:33:00,
2013-05-08 09:35:00,35.2,27.5,0.00,SW,220,0.0,0.0,73,0.00,,---,0.00,VWS V14.00,2013-05-08 15:35:00,
2013-05-08 09:37:00,35.2,27.5,0.00,SW,219,0.0,0.0,73,0.00,,---,0.00,VWS V14.00,2013-05-08 15:37:00,
2013-05-08 09:38:00,35.1,27.3,0.00,SW,225,0.0,0.0,73,0.00,,---,0.00,VWS V14.00,2013-05-08 15:38:00,
2013-05-08 09:40:00,35.1,27.6,0.00,SW,219,0.0,0.0,74,0.00,,---,0.00,VWS V14.00,2013-05-08 15:40:00,
2013-05-08 09:42:00,35.1,27.6,0.00,SW,225,0.0,0.0,74,0.00,,---,0.00,VWS V14.00,2013-05-08 15:42:00,
2013-05-08 09:43:00,35.1,27.6,0.00,SW,224,0.0,0.0,74,0.00,,---,0.00,VWS V14.00,2013-05-08 15:43:00,
2013-05-08 09:45:00,35.1,28.0,0.00,SW,224,0.0,0.0,75,0.00,,---,0.00,VWS V14.00,2013-05-08 15:45:00,
2013-05-08 09:48:00,35.1,28.0,0.00,SW,224,0.0,0.0,75,0.00,,---,0.00,VWS V14.00,2013-05-08 15:48:00,
2013-05-08 09:49:00,35.1,28.3,0.00,SW,225,0.0,0.0,76,0.00,,---,0.00,VWS V14.00,2013-05-08 15:49:00,
2013-05-08 09:50:00,35.1,28.3,0.00,SW,225,0.0,0.0,76,0.00,,---,0.00,VWS V14.00,2013-05-08 15:50:00,
2013-05-08 09:53:00,35.1,28.6,0.00,SW,225,0.0,0.0,77,0.00,,---,0.00,VWS V14.00,2013-05-08 15:53:00,
2013-05-08 09:54:00,35.1,28.6,0.00,SW,225,0.0,0.0,77,0.00,,---,0.00,VWS V14.00,2013-05-08 15:54:00,
2013-05-08 09:55:00,35.1,28.6,0.00,SW,226,0.0,0.0,77,0.00,,---,0.00,VWS V14.00,2013-05-08 15:55:00,
2013-05-08 09:58:00,35.1,28.6,0.00,SW,226,0.0,0.0,77,0.00,,---,0.00,VWS V14.00,2013-05-08 15:58:00,
2013-05-08 09:59:00,35.1,28.6,0.00,SW,226,0.0,0.0,77,0.00,,---,0.00,VWS V14.00,2013-05-08 15:59:00,
2013-05-08 10:00:00,35.1,28.6,0.00,SW,226,0.0,0.0,77,0.00,,---,0.00,VWS V14.00,2013-05-08 16:00:00,
2013-05-08 10:03:00,35.1,28.6,0.00,SW,226,0.0,0.0,77,0.00,,---,0.00,VWS V14.00,2013-05-08 16:03:00,
2013-05-08 10:04:00,35.1,28.6,0.00,SW,226,0.0,0.0,77,0.00,,---,0.00,VWS V14.00,2013-05-08 16:04:00,
2013-05-08 10:05:00,35.1,28.9,0.00,SW,226,0.0,0.0,78,0.00,,---,0.00,VWS V14.00,2013-05-08 16:05:00,
2013-05-08 10:08:00,35.2,29.1,0.00,SW,226,0.0,0.0,78,0.00,,---,0.00,VWS V14.00,2013-05-08 16:08:00,
2013-05-08 10:09:00,35.2,29.1,0.00,SW,223,0.0,0.0,78,0.00,,---,0.00,VWS V14.00,2013-05-08 16:09:00,
2013-05-08 10:11:00,35.2,29.1,0.00,SW,226,0.0,0.0,78,0.00,,---,0.00,VWS V14.00,2013-05-08 16:11:00,
2013-05-08 10:13:00,35.4,29.2,0.00,SW,222,0.0,0.0,78,0.00,,---,0.00,VWS V14.00,2013-05-08 16:13:00,
2013-05-08 10:14:00,35.4,29.2,0.00,SSE,152,0.0,0.0,78,0.00,,---,0.00,VWS V14.00,2013-05-08 16:14:00,
2013-05-08 10:16:00,35.4,29.2,0.00,SSE,155,0.0,0.0,78,0.00,,---,0.00,VWS V14.00,2013-05-08 16:16:00,
2013-05-08 10:18:00,35.6,29.4,0.00,SE,135,0.0,0.0,78,0.00,,---,0.00,VWS V14.00,2013-05-08 16:18:00,
2013-05-08 10:19:00,35.6,29.4,0.00,SE,131,0.0,0.0,78,0.00,,---,0.00,VWS V14.00,2013-05-08 16:19:00,
2013-05-08 10:21:00,35.6,29.4,0.00,SE,135,0.0,0.0,78,0.00,,---,0.00,VWS V14.00,2013-05-08 16:21:00,
2013-05-08 10:23:00,35.8,29.3,0.00,SE,135,0.0,0.0,77,0.00,,---,0.00,VWS V14.00,2013-05-08 16:23:00,
2013-05-08 10:24:00,35.8,29.3,0.00,SE,135,0.0,0.0,77,0.00,,---,0.00,VWS V14.00,2013-05-08 16:24:00,
2013-05-08 10:25:00,35.8,29.3,0.00,SE,134,0.0,0.0,77,0.00,,---,0.00,VWS V14.00,2013-05-08 16:25:00,
2013-05-08 10:26:00,35.8,29.3,0.00,SE,135,0.0,0.0,77,0.00,,---,0.00,VWS V14.00,2013-05-08 16:26:00,
2013-05-08 10:29:00,36.0,29.5,0.00,SE,135,0.0,0.0,77,0.00,,---,0.00,VWS V14.00,2013-05-08 16:29:00,
2013-05-08 10:30:00,36.0,29.5,0.00,SE,131,0.0,0.0,77,0.00,,---,0.00,VWS V14.00,2013-05-08 16:30:00,
2013-05-08 10:31:00,36.0,29.1,0.00,SE,135,0.0,0.0,76,0.00,,---,0.00,VWS V14.00,2013-05-08 16:31:00,
2013-05-08 10:34:00,36.0,29.1,0.00,SE,135,0.0,0.0,76,0.00,,---,0.00,VWS V14.00,2013-05-08 16:34:00,
2013-05-08 10:35:00,36.0,29.1,0.00,SE,135,0.0,0.0,76,0.00,,---,0.00,VWS V14.00,2013-05-08 16:35:00,
2013-05-08 10:36:00,36.1,29.0,0.00,SE,135,0.0,0.0,75,0.00,,---,0.00,VWS V14.00,2013-05-08 16:36:00,
2013-05-08 10:39:00,36.1,29.0,0.00,SE,135,0.0,0.0,75,0.00,,---,0.00,VWS V14.00,2013-05-08 16:39:00,
2013-05-08 10:40:00,36.1,29.0,0.00,SE,135,0.0,0.0,75,0.00,,---,0.00,VWS V14.00,2013-05-08 16:40:00,
2013-05-08 10:41:00,36.1,29.0,0.00,SE,135,0.0,0.0,75,0.00,,---,0.00,VWS V14.00,2013-05-08 16:41:00,
2013-05-08 10:44:00,36.1,29.0,0.00,SE,145,0.0,0.0,75,0.00,,---,0.00,VWS V14.00,2013-05-08 16:44:00,
2013-05-08 10:45:00,36.1,29.0,0.00,SSE,151,0.0,0.0,75,0.00,,---,0.00,VWS V14.00,2013-05-08 16:45:00,
2013-05-08 10:46:00,36.1,28.7,0.00,SSE,153,0.0,0.0,74,0.00,,---,0.00,VWS V14.00,2013-05-08 16:46:00,
2013-05-08 10:49:00,36.1,28.7,0.00,SSE,152,0.0,0.0,74,0.00,,---,0.00,VWS V14.00,2013-05-08 16:49:00,
2013-05-08 10:50:00,36.1,29.0,0.00,South,173,0.0,0.0,75,0.00,,---,0.00,VWS V14.00,2013-05-08 16:50:00,
2013-05-08 10:51:00,36.1,29.0,0.00,South,175,0.0,0.0,75,0.00,,---,0.00,VWS V14.00,2013-05-08 16:51:00,
2013-05-08 10:54:00,36.1,29.0,0.00,South,176,0.0,0.0,75,0.00,,---,0.00,VWS V14.00,2013-05-08 16:54:00,
2013-05-08 10:55:00,36.1,29.0,0.00,South,176,0.0,0.0,75,0.00,,---,0.00,VWS V14.00,2013-05-08 16:55:00,
2013-05-08 10:56:00,36.1,29.3,0.00,South,176,0.0,0.0,76,0.00,,---,0.00,VWS V14.00,2013-05-08 16:56:00,
2013-05-08 10:57:00,36.1,29.3,0.00,South,176,0.0,0.0,76,0.00,,---,0.00,VWS V14.00,2013-05-08 16:57:00,
2013-05-08 10:59:00,36.3,29.5,0.00,South,175,0.0,0.0,76,0.00,,---,0.00,VWS V14.00,2013-05-08 16:59:00,
2013-05-08 11:00:00,36.3,29.5,0.00,South,176,0.0,0.0,76,0.00,,---,0.00,VWS V14.00,2013-05-08 17:00:00,
2013-05-08 11:01:00,36.3,29.5,0.00,South,176,0.0,0.0,76,0.00,,---,0.00,VWS V14.00,2013-05-08 17:01:00,
2013-05-08 11:02:00,36.3,29.5,0.00,South,171,0.0,0.0,76,0.00,,---,0.00,VWS V14.00,2013-05-08 17:02:00,
2013-05-08 11:04:00,36.5,30.0,0.00,SE,146,0.0,0.0,77,0.00,,---,0.00,VWS V14.00,2013-05-08 17:04:00,
2013-05-08 11:05:00,36.5,30.0,0.00,SE,146,0.0,0.0,77,0.00,,---,0.00,VWS V14.00,2013-05-08 17:05:00,
2013-05-08 11:06:00,36.5,30.0,0.00,SE,146,0.0,0.0,77,0.00,,---,0.00,VWS V14.00,2013-05-08 17:06:00,
2013-05-08 11:07:00,36.5,30.0,0.00,SE,145,0.0,0.0,77,0.00,,---,0.00,VWS V14.00,2013-05-08 17:07:00,
2013-05-08 11:09:00,36.7,30.2,0.00,SE,146,0.0,0.0,77,0.00,,---,0.00,VWS V14.00,2013-05-08 17:09:00,
2013-05-08 11:10:00,36.7,30.2,0.00,SE,146,0.0,0.0,77,0.00,,---,0.00,VWS V14.00,2013-05-08 17:10:00,
2013-05-08 11:12:00,36.7,30.2,0.00,SE,146,0.0,0.0,77,0.00,,---,0.00,VWS V14.00,2013-05-08 17:12:00,
2013-05-08 11:14:00,36.9,30.3,0.00,ESE,113,0.0,0.0,77,0.00,,---,0.00,VWS V14.00,2013-05-08 17:14:00,
2013-05-08 11:15:00,36.9,30.6,0.00,ESE,116,0.0,0.0,78,0.00,,---,0.00,VWS V14.00,2013-05-08 17:15:00,
2013-05-08 11:17:00,36.9,30.3,0.00,SSW,200,0.0,0.0,77,0.00,,---,0.00,VWS V14.00,2013-05-08 17:17:00,
2013-05-08 11:20:00,36.9,30.6,0.00,East,98,3.6,3.6,78,0.00,,---,0.00,VWS V14.00,2013-05-08 17:20:00,
2013-05-08 11:21:00,36.9,30.6,0.00,East,98,3.6,3.6,78,0.00,,---,0.00,VWS V14.00,2013-05-08 17:21:00,
2013-05-08 11:22:00,37.0,30.8,0.00,East,101,0.0,0.0,78,0.00,,---,0.00,VWS V14.00,2013-05-08 17:22:00,
2013-05-08 11:23:00,37.0,30.8,0.00,ESE,102,2.7,2.7,78,0.00,,---,0.00,VWS V14.00,2013-05-08 17:23:00,
2013-05-08 11:25:00,37.0,30.8,0.00,ESE,113,0.0,0.0,78,0.00,,---,0.00,VWS V14.00,2013-05-08 17:25:00,
2013-05-08 11:26:00,37.0,30.8,0.00,ESE,112,0.0,0.0,78,0.00,,---,0.00,VWS V14.00,2013-05-08 17:26:00,
2013-05-08 11:27:00,37.2,31.0,0.00,ESE,112,0.0,0.0,78,0.00,,---,0.00,VWS V14.00,2013-05-08 17:27:00,
2013-05-08 11:28:00,37.2,30.7,0.00,SE,145,0.0,0.0,77,0.00,,---,0.00,VWS V14.00,2013-05-08 17:28:00,
2013-05-08 11:30:00,37.4,30.9,0.00,SSE,147,0.0,0.0,77,0.00,,---,0.00,VWS V14.00,2013-05-08 17:30:00,
2013-05-08 11:31:00,37.4,30.9,0.00,SSE,147,0.0,0.0,77,0.00,,---,0.00,VWS V14.00,2013-05-08 17:31:00,
2013-05-08 11:32:00,37.4,30.9,0.00,SE,143,0.0,0.0,77,0.00,,---,0.00,VWS V14.00,2013-05-08 17:32:00,
2013-05-08 11:33:00,37.4,30.9,0.00,ESE,119,3.6,3.6,77,0.00,,---,0.00,VWS V14.00,2013-05-08 17:33:00,
2013-05-08 11:35:00,37.4,30.9,0.00,ESE,115,0.0,0.0,77,0.00,,---,0.00,VWS V14.00,2013-05-08 17:35:00,
2013-05-08 11:36:00,37.4,30.9,0.00,SE,141,2.7,2.7,77,0.00,,---,0.00,VWS V14.00,2013-05-08 17:36:00,
2013-05-08 11:37:00,37.4,30.9,0.00,SE,124,3.1,3.1,77,0.00,,---,0.00,VWS V14.00,2013-05-08 17:37:00,
2013-05-08 11:38:00,37.6,31.0,0.00,East,97,2.2,3.6,77,0.00,,---,0.00,VWS V14.00,2013-05-08 17:38:00,
2013-05-08 11:41:00,37.6,31.0,0.00,ESE,109,0.0,0.0,77,0.00,,---,0.00,VWS V14.00,2013-05-08 17:41:00,
2013-05-08 11:42:00,37.6,31.0,0.00,ESE,120,0.0,0.0,77,0.00,,---,0.00,VWS V14.00,2013-05-08 17:42:00,
2013-05-08 11:43:00,37.8,31.2,0.00,ESE,120,0.0,0.0,77,0.00,,---,0.00,VWS V14.00,2013-05-08 17:43:00,
2013-05-08 11:46:00,37.9,31.4,0.00,SSW,212,0.0,0.0,77,0.00,,---,0.00,VWS V14.00,2013-05-08 17:46:00,
2013-05-08 11:47:00,37.9,31.7,0.00,South,171,0.0,0.0,78,0.00,,---,0.00,VWS V14.00,2013-05-08 17:47:00,
2013-05-08 11:48:00,37.9,31.7,0.00,South,171,0.0,0.0,78,0.00,,---,0.00,VWS V14.00,2013-05-08 17:48:00,
2013-05-08 11:51:00,38.1,31.9,0.00,South,180,0.0,0.0,78,0.00,,---,0.00,VWS V14.00,2013-05-08 17:51:00,
2013-05-08 11:52:00,38.1,31.9,0.00,SW,218,0.0,0.0,78,0.00,,---,0.00,VWS V14.00,2013-05-08 17:52:00,
2013-05-08 11:53:00,38.1,31.9,0.00,SW,219,0.0,0.0,78,0.00,,---,0.00,VWS V14.00,2013-05-08 17:53:00,
2013-05-08 11:56:00,38.3,31.7,0.00,SW,218,0.0,0.0,77,0.00,,---,0.00,VWS V14.00,2013-05-08 17:56:00,
2013-05-08 11:57:00,38.3,31.4,0.00,SW,218,0.0,0.0,76,0.00,,---,0.00,VWS V14.00,2013-05-08 17:57:00,
2013-05-08 11:58:00,38.3,31.4,0.00,SW,219,0.0,0.0,76,0.00,,---,0.00,VWS V14.00,2013-05-08 17:58:00,
2013-05-08 12:01:00,38.5,31.6,0.00,SW,219,0.0,0.0,76,0.00,,---,0.00,VWS V14.00,2013-05-08 18:01:00,
2013-05-08 12:02:00,38.5,31.3,0.00,ESE,115,2.2,3.6,75,0.00,,---,0.00,VWS V14.00,2013-05-08 18:02:00,
2013-05-08 12:03:00,38.5,31.3,0.00,ESE,115,0.0,0.0,75,0.00,,---,0.00,VWS V14.00,2013-05-08 18:03:00,
2013-05-08 12:06:00,38.5,31.3,0.00,WSW,246,0.0,0.0,75,0.00,,---,0.00,VWS V14.00,2013-05-08 18:06:00,
2013-05-08 12:07:00,38.7,31.8,0.00,SW,233,0.0,0.0,76,0.00,,---,0.00,VWS V14.00,2013-05-08 18:07:00,
2013-05-08 12:08:00,38.7,31.8,0.00,SW,222,0.0,0.0,76,0.00,,---,0.00,VWS V14.00,2013-05-08 18:08:00,
2013-05-08 12:11:00,38.8,31.9,0.00,SW,221,0.0,0.0,76,0.00,,---,0.00,VWS V14.00,2013-05-08 18:11:00,
2013-05-08 12:12:00,39.0,32.1,0.00,SSW,211,0.0,0.0,76,0.00,,---,0.00,VWS V14.00,2013-05-08 18:12:00,
2013-05-08 12:13:00,39.0,32.1,0.00,SE,134,2.7,2.7,76,0.00,,---,0.00,VWS V14.00,2013-05-08 18:13:00,
2013-05-08 12:14:00,39.2,32.3,0.00,SE,135,0.0,2.7,76,0.00,,---,0.00,VWS V14.00,2013-05-08 18:14:00,
2013-05-08 12:16:00,39.2,32.3,0.00,SE,143,0.0,0.0,76,0.00,,---,0.00,VWS V14.00,2013-05-08 18:16:00,
2013-05-08 12:17:00,39.4,32.5,0.00,SE,137,0.0,0.0,76,0.00,,---,0.00,VWS V14.00,2013-05-08 18:17:00,
2013-05-08 12:19:00,39.4,32.1,0.00,SE,138,0.0,4.0,75,0.00,,---,0.00,VWS V14.00,2013-05-08 18:19:00,
2013-05-08 12:21:00,39.6,32.3,0.00,ESE,113,3.1,3.1,75,0.00,,---,0.00,VWS V14.00,2013-05-08 18:21:00,
2013-05-08 12:22:00,39.6,32.3,0.00,ESE,113,0.0,3.1,75,0.00,,---,0.00,VWS V14.00,2013-05-08 18:22:00,
2013-05-08 12:24:00,39.7,32.5,0.00,SE,140,0.0,2.7,75,0.00,,---,0.00,VWS V14.00,2013-05-08 18:24:00,
2013-05-08 12:26:00,39.9,32.3,0.00,SSW,194,0.0,0.0,74,0.00,,---,0.00,VWS V14.00,2013-05-08 18:26:00,
2013-05-08 12:27:00,39.9,32.0,0.00,SSW,194,0.0,0.0,73,0.00,,---,0.00,VWS V14.00,2013-05-08 18:27:00,
2013-05-08 12:29:00,39.9,31.6,0.00,WSW,254,0.0,0.0,72,0.00,,---,0.00,VWS V14.00,2013-05-08 18:29:00,
2013-05-08 12:31:00,39.9,31.6,0.00,WSW,254,0.0,0.0,72,0.00,,---,0.00,VWS V14.00,2013-05-08 18:31:00,
2013-05-08 12:32:00,39.9,31.6,0.00,WSW,254,0.0,0.0,72,0.00,,---,0.00,VWS V14.00,2013-05-08 18:32:00,
2013-05-08 12:33:00,40.1,31.8,0.00,WSW,251,0.0,0.0,72,0.00,,---,0.00,VWS V14.00,2013-05-08 18:33:00,
2013-05-08 12:34:00,40.1,32.2,0.00,SSW,203,0.0,0.0,73,0.00,,---,0.00,VWS V14.00,2013-05-08 18:34:00,
2013-05-08 12:36:00,40.3,32.3,0.00,SSW,197,0.0,0.0,73,0.00,,---,0.00,VWS V14.00,2013-05-08 18:36:00,
2013-05-08 12:37:00,40.3,32.0,0.00,SSW,197,0.0,0.0,72,0.00,,---,0.00,VWS V14.00,2013-05-08 18:37:00,
2013-05-08 12:38:00,40.3,32.0,0.00,SSW,197,0.0,0.0,72,0.00,,---,0.00,VWS V14.00,2013-05-08 18:38:00,
2013-05-08 12:39:00,40.3,32.0,0.00,West,271,0.0,0.0,72,0.00,,---,0.00,VWS V14.00,2013-05-08 18:39:00,
2013-05-08 12:42:00,40.3,32.0,0.00,WNW,297,0.0,2.7,72,0.00,,---,0.00,VWS V14.00,2013-05-08 18:42:00,
2013-05-08 12:43:00,40.3,32.0,0.00,WNW,296,0.0,0.0,72,0.04,,---,0.04,VWS V14.00,2013-05-08 18:43:00,
2013-05-08 12:44:00,40.3,32.0,0.00,WSW,250,0.0,0.0,72,0.04,,---,0.04,VWS V14.00,2013-05-08 18:44:00,
2013-05-08 12:47:00,40.3,32.0,0.00,WSW,248,0.0,0.0,72,0.04,,---,0.04,VWS V14.00,2013-05-08 18:47:00,
2013-05-08 12:48:00,40.3,32.3,0.00,WSW,248,0.0,0.0,73,0.04,,---,0.04,VWS V14.00,2013-05-08 18:48:00,
2013-05-08 12:49:00,40.3,32.3,0.00,West,260,0.0,3.1,73,0.04,,---,0.04,VWS V14.00,2013-05-08 18:49:00,
2013-05-08 12:50:00,40.3,32.3,0.00,SW,216,0.0,0.0,73,0.04,,---,0.04,VWS V14.00,2013-05-08 18:50:00,
2013-05-08 12:52:00,40.3,32.3,0.00,SSW,203,0.0,0.0,73,0.04,,---,0.04,VWS V14.00,2013-05-08 18:52:00,
2013-05-08 12:53:00,40.5,32.8,0.00,SSW,213,0.0,0.0,74,0.08,,---,0.08,VWS V14.00,2013-05-08 18:53:00,
2013-05-08 12:54:00,40.3,32.3,0.00,SW,215,0.0,0.0,73,0.08,,---,0.08,VWS V14.00,2013-05-08 18:54:00,
2013-05-08 12:55:00,40.5,32.5,0.00,SSW,207,0.0,0.0,73,0.08,,---,0.08,VWS V14.00,2013-05-08 18:55:00,
2013-05-08 12:57:00,40.5,32.5,0.00,SSE,161,2.7,2.7,73,0.08,,---,0.08,VWS V14.00,2013-05-08 18:57:00,
2013-05-08 12:58:00,40.5,32.5,0.00,SE,144,4.0,4.0,73,0.08,,---,0.08,VWS V14.00,2013-05-08 18:58:00,
2013-05-08 12:59:00,40.5,32.8,0.00,SE,129,0.0,0.0,74,0.08,,---,0.08,VWS V14.00,2013-05-08 18:59:00,
2013-05-08 13:00:00,40.5,32.8,0.00,SE,129,0.0,0.0,74,0.08,,---,0.08,VWS V14.00,2013-05-08 19:00:00,
2013-05-08 13:02:00,40.5,32.8,0.00,SSW,197,0.0,0.0,74,0.08,,---,0.08,VWS V14.00,2013-05-08 19:02:00,
2013-05-08 13:03:00,40.5,32.8,0.00,SSW,197,0.0,0.0,74,0.08,,---,0.08,VWS V14.00,2013-05-08 19:03:00,
2013-05-08 13:05:00,40.6,33.0,0.00,South,173,0.0,0.0,74,0.08,,---,0.08,VWS V14.00,2013-05-08 19:05:00,
2013-05-08 13:07:00,40.6,33.0,0.00,South,173,0.0,0.0,74,0.08,,---,0.08,VWS V14.00,2013-05-08 19:07:00,
2013-05-08 13:08:00,40.6,33.0,0.00,South,173,0.0,0.0,74,0.08,,---,0.08,VWS V14.00,2013-05-08 19:08:00,
2013-05-08 13:10:00,40.6,33.3,0.00,South,173,0.0,0.0,75,0.12,,---,0.12,VWS V14.00,2013-05-08 19:10:00,
2013-05-08 13:12:00,40.8,33.2,0.00,South,178,0.0,0.0,74,0.12,,---,0.12,VWS V14.00,2013-05-08 19:12:00,
2013-05-08 13:13:00,40.8,33.2,0.00,South,183,0.0,0.0,74,0.12,,---,0.12,VWS V14.00,2013-05-08 19:13:00,
2013-05-08 13:15:00,41.0,33.0,0.00,South,183,0.0,0.0,73,0.12,,---,0.12,VWS V14.00,2013-05-08 19:15:00,
2013-05-08 13:17:00,41.0,33.0,0.00,SSE,148,0.0,0.0,73,0.12,,---,0.12,VWS V14.00,2013-05-08 19:17:00,
2013-05-08 13:18:00,41.0,33.0,0.00,South,174,0.0,0.0,73,0.12,,---,0.12,VWS V14.00,2013-05-08 19:18:00,
2013-05-08 13:19:00,41.2,33.2,0.00,SSE,158,2.7,2.7,73,0.12,,---,0.12,VWS V14.00,2013-05-08 19:19:00,
2013-05-08 13:20:00,41.2,33.2,0.00,SSE,156,0.0,0.0,73,0.16,,---,0.16,VWS V14.00,2013-05-08 19:20:00,
2013-05-08 13:22:00,41.2,33.2,0.00,SSE,156,0.0,0.0,73,0.16,,---,0.16,VWS V14.00,2013-05-08 19:22:00,
2013-05-08 13:23:00,41.2,32.8,0.00,SSE,156,0.0,0.0,72,0.16,,---,0.16,VWS V14.00,2013-05-08 19:23:00,
2013-05-08 13:24:00,41.2,32.8,0.00,SSE,156,0.0,0.0,72,0.16,,---,0.16,VWS V14.00,2013-05-08 19:24:00,
2013-05-08 13:25:00,41.4,33.0,0.00,SSE,156,0.0,0.0,72,0.16,,---,0.16,VWS V14.00,2013-05-08 19:25:00,
2013-05-08 13:27:00,41.4,33.0,0.00,SSE,156,0.0,0.0,72,0.16,,---,0.16,VWS V14.00,2013-05-08 19:27:00,
2013-05-08 13:28:00,41.4,33.0,0.00,SSE,156,0.0,0.0,72,0.16,,---,0.16,VWS V14.00,2013-05-08 19:28:00,
2013-05-08 13:29:00,41.4,33.4,0.00,SE,137,0.0,0.0,73,0.16,,---,0.16,VWS V14.00,2013-05-08 19:29:00,
2013-05-08 13:30:00,41.5,33.5,0.00,SE,137,0.0,0.0,73,0.16,,---,0.16,VWS V14.00,2013-05-08 19:30:00,
2013-05-08 13:31:00,41.5,33.5,0.00,SSW,201,0.0,0.0,73,0.16,,---,0.16,VWS V14.00,2013-05-08 19:31:00,
2013-05-08 13:33:00,41.5,33.5,0.00,SW,214,0.0,0.0,73,0.16,,---,0.16,VWS V14.00,2013-05-08 19:33:00,
2013-05-08 13:34:00,41.5,33.2,0.00,SSW,195,0.0,0.0,72,0.16,,---,0.16,VWS V14.00,2013-05-08 19:34:00,
2013-05-08 13:35:00,41.7,33.7,0.00,SSE,150,0.0,0.0,73,0.16,,---,0.16,VWS V14.00,2013-05-08 19:35:00,
2013-05-08 13:36:00,41.7,33.4,0.00,SSE,150,0.0,0.0,72,0.16,,---,0.16,VWS V14.00,2013-05-08 19:36:00,
2013-05-08 13:38:00,41.7,33.7,0.00,SSE,150,0.0,0.0,73,0.16,,---,0.16,VWS V14.00,2013-05-08 19:38:00,
2013-05-08 13:39:00,41.7,33.7,0.00,ESE,106,0.0,0.0,73,0.16,,---,0.16,VWS V14.00,2013-05-08 19:39:00,
2013-05-08 13:41:00,41.7,33.7,0.00,ESE,106,0.0,0.0,73,0.16,,---,0.16,VWS V14.00,2013-05-08 19:41:00,
2013-05-08 13:43:00,41.9,33.9,0.00,ESE,107,0.0,0.0,73,0.12,,---,0.16,VWS V14.00,2013-05-08 19:43:00,
2013-05-08 13:44:00,41.9,33.9,0.00,ESE,107,0.0,0.0,73,0.12,,---,0.16,VWS V14.00,2013-05-08 19:44:00,
2013-05-08 13:46:00,41.9,33.5,0.00,ESE,107,0.0,0.0,72,0.12,,---,0.16,VWS V14.00,2013-05-08 19:46:00,
2013-05-08 13:47:00,41.9,33.5,0.00,ESE,107,0.0,0.0,72,0.12,,---,0.16,VWS V14.00,2013-05-08 19:47:00,
2013-05-08 13:48:00,41.9,33.5,0.00,ESE,107,0.0,0.0,72,0.12,,---,0.16,VWS V14.00,2013-05-08 19:48:00,
2013-05-08 13:49:00,41.9,33.5,0.00,SE,136,0.0,2.2,72,0.12,,---,0.16,VWS V14.00,2013-05-08 19:49:00,
2013-05-08 13:51:00,41.9,33.2,0.00,SE,136,0.0,0.0,71,0.12,,---,0.16,VWS V14.00,2013-05-08 19:51:00,
2013-05-08 13:52:00,41.9,33.2,0.00,SSE,159,2.7,3.6,71,0.12,,---,0.16,VWS V14.00,2013-05-08 19:52:00,
2013-05-08 13:53:00,41.7,33.0,0.00,SE,130,0.0,2.7,71,0.08,,---,0.16,VWS V14.00,2013-05-08 19:53:00,
2013-05-08 13:54:00,41.7,32.7,0.00,SE,138,3.1,3.1,70,0.08,,---,0.16,VWS V14.00,2013-05-08 19:54:00,
2013-05-08 13:56:00,41.5,32.5,0.00,South,170,0.0,3.1,70,0.08,,---,0.16,VWS V14.00,2013-05-08 19:56:00,
2013-05-08 13:57:00,41.5,32.5,0.00,East,94,2.2,3.1,70,0.08,,---,0.16,VWS V14.00,2013-05-08 19:57:00,
2013-05-08 13:58:00,41.4,32.7,0.00,SSE,163,0.0,3.1,71,0.08,,---,0.16,VWS V14.00,2013-05-08 19:58:00,
2013-05-08 13:59:00,41.4,32.7,0.00,SSE,163,0.0,3.1,71,0.08,,---,0.16,VWS V14.00,2013-05-08 19:59:00,
2013-05-08 14:01:00,41.2,32.5,0.00,SE,129,2.7,3.1,71,0.08,,---,0.16,VWS V14.00,2013-05-08 20:01:00,
2013-05-08 14:02:00,41.2,32.5,0.00,SE,125,3.6,4.0,71,0.08,,---,0.16,VWS V14.00,2013-05-08 20:02:00,
2013-05-08 14:04:00,41.0,32.3,0.00,SE,131,0.0,2.2,71,0.08,,---,0.16,VWS V14.00,2013-05-08 20:04:00,
2013-05-08 14:05:00,41.0,32.3,0.00,East,83,3.6,4.9,71,0.08,,---,0.16,VWS V14.00,2013-05-08 20:05:00,
2013-05-08 14:06:00,41.0,32.3,0.00,East,100,0.0,0.0,71,0.08,,---,0.16,VWS V14.00,2013-05-08 20:06:00,
2013-05-08 14:07:00,41.0,32.3,0.00,East,100,0.0,0.0,71,0.08,,---,0.16,VWS V14.00,2013-05-08 20:07:00,
2013-05-08 14:09:00,40.8,32.2,0.00,ESE,120,0.0,3.6,71,0.08,,---,0.16,VWS V14.00,2013-05-08 20:09:00,
2013-05-08 14:11:00,40.6,31.6,0.00,ESE,120,0.0,0.0,70,0.04,,---,0.16,VWS V14.00,2013-05-08 20:11:00,
2013-05-08 14:12:00,40.6,31.6,0.00,ESE,119,0.0,0.0,70,0.04,,---,0.16,VWS V14.00,2013-05-08 20:12:00,
2013-05-08 14:14:00,40.5,31.1,0.00,ESE,119,0.0,0.0,69,0.04,,---,0.16,VWS V14.00,2013-05-08 20:14:00,
2013-05-08 14:15:00,40.5,31.1,0.00,ESE,119,0.0,0.0,69,0.04,,---,0.16,VWS V14.00,2013-05-08 20:15:00,
2013-05-08 14:17:00,40.3,30.6,0.00,ESE,119,0.0,0.0,68,0.04,,---,0.16,VWS V14.00,2013-05-08 20:17:00,
2013-05-08 14:19:00,40.3,30.2,0.00,ESE,113,0.0,0.0,67,0.04,,---,0.16,VWS V14.00,2013-05-08 20:19:00,
2013-05-08 14:20:00,40.1,30.0,0.00,ESE,112,0.0,0.0,67,0.04,,---,0.16,VWS V14.00,2013-05-08 20:20:00,
2013-05-08 14:22:00,39.9,29.9,0.00,ESE,111,0.0,0.0,67,0.00,,---,0.16,VWS V14.00,2013-05-08 20:22:00,
2013-05-08 14:24:00,39.7,29.7,0.00,South,186,0.0,2.2,67,0.00,,---,0.16,VWS V14.00,2013-05-08 20:24:00,
2013-05-08 14:25:00,39.7,29.7,0.00,South,186,0.0,0.0,67,0.00,,---,0.16,VWS V14.00,2013-05-08 20:25:00,
2013-05-08 14:27:00,39.6,29.5,0.00,SSW,198,0.0,0.0,67,0.00,,---,0.16,VWS V14.00,2013-05-08 20:27:00,
2013-05-08 14:29:00,39.4,29.4,0.00,SSW,198,0.0,0.0,67,0.00,,---,0.16,VWS V14.00,2013-05-08 20:29:00,
2013-05-08 14:30:00,39.4,29.4,0.00,SSW,198,0.0,0.0,67,0.00,,---,0.16,VWS V14.00,2013-05-08 20:30:00,
2013-05-08 14:32:00,39.2,29.2,0.00,SSW,198,0.0,0.0,67,0.00,,---,0.16,VWS V14.00,2013-05-08 20:32:00,
2013-05-08 14:34:00,39.0,29.0,0.00,SSW,198,0.0,0.0,67,0.00,,---,0.16,VWS V14.00,2013-05-08 20:34:00,
2013-05-08 14:36:00,38.8,28.8,0.00,SSW,198,0.0,0.0,67,0.00,,---,0.16,VWS V14.00,2013-05-08 20:36:00,
2013-05-08 14:37:00,38.8,28.8,0.00,SSW,198,0.0,0.0,67,0.00,,---,0.16,VWS V14.00,2013-05-08 20:37:00,
2013-05-08 14:39:00,38.7,29.0,0.00,SSW,200,0.0,0.0,68,0.00,,---,0.16,VWS V14.00,2013-05-08 20:39:00,
2013-05-08 14:41:00,38.7,29.0,0.00,SSW,200,0.0,0.0,68,0.00,,---,0.16,VWS V14.00,2013-05-08 20:41:00,
2013-05-08 14:42:00,38.5,28.9,0.00,SSW,200,0.0,0.0,68,0.00,,---,0.16,VWS V14.00,2013-05-08 20:42:00,
2013-05-08 14:43:00,38.5,28.9,0.00,SSW,200,0.0,0.0,68,0.00,,---,0.16,VWS V14.00,2013-05-08 20:43:00,
2013-05-08 14:44:00,38.5,28.9,0.00,SSW,210,0.0,0.0,68,0.00,,---,0.16,VWS V14.00,2013-05-08 20:44:00,
2013-05-08 14:45:00,38.5,28.9,0.00,SSW,210,0.0,0.0,68,0.00,,---,0.16,VWS V14.00,2013-05-08 20:45:00,
2013-05-08 14:46:00,38.3,28.7,0.00,SSW,210,0.0,0.0,68,0.00,,---,0.16,VWS V14.00,2013-05-08 20:46:00,
2013-05-08 14:47:00,38.1,28.9,0.00,SSW,210,0.0,0.0,69,0.00,,---,0.16,VWS V14.00,2013-05-08 20:47:00,
2013-05-08 14:48:00,38.1,28.9,0.00,SSW,210,0.0,0.0,69,0.00,,---,0.16,VWS V14.00,2013-05-08 20:48:00,
2013-05-08 14:49:00,38.1,28.9,0.00,SW,232,0.0,0.0,69,0.00,,---,0.16,VWS V14.00,2013-05-08 20:49:00,
2013-05-08 14:50:00,38.1,28.9,0.00,SW,232,0.0,0.0,69,0.00,,---,0.16,VWS V14.00,2013-05-08 20:50:00,
2013-05-08 14:51:00,37.9,28.7,0.00,SW,232,0.0,0.0,69,0.00,,---,0.16,VWS V14.00,2013-05-08 20:51:00,
2013-05-08 14:52:00,37.9,28.7,0.00,SW,232,0.0,0.0,69,0.00,,---,0.16,VWS V14.00,2013-05-08 20:52:00,
2013-05-08 14:53:00,37.9,28.7,0.00,SW,234,0.0,0.0,69,0.00,,---,0.16,VWS V14.00,2013-05-08 20:53:00,
2013-05-08 14:54:00,37.9,28.7,0.00,SW,234,0.0,0.0,69,0.00,,---,0.16,VWS V14.00,2013-05-08 20:54:00,
2013-05-08 14:55:00,37.9,28.7,0.00,SW,234,0.0,0.0,69,0.00,,---,0.16,VWS V14.00,2013-05-08 20:55:00,
2013-05-08 14:57:00,37.8,28.5,0.00,SW,234,0.0,0.0,69,0.00,,---,0.16,VWS V14.00,2013-05-08 20:57:00,
2013-05-08 14:59:00,37.8,28.5,0.00,SW,234,0.0,0.0,69,0.00,,---,0.16,VWS V14.00,2013-05-08 20:59:00,
2013-05-08 15:00:00,37.8,28.5,0.00,SW,234,0.0,0.0,69,0.00,,---,0.16,VWS V14.00,2013-05-08 21:00:00,
2013-05-08 15:02:00,37.6,28.4,0.00,SW,234,0.0,0.0,69,0.00,,---,0.16,VWS V14.00,2013-05-08 21:02:00,
2013-05-08 15:04:00,37.6,28.4,0.00,SW,234,0.0,0.0,69,0.00,,---,0.16,VWS V14.00,2013-05-08 21:04:00,
2013-05-08 15:05:00,37.6,28.4,0.00,SW,234,0.0,0.0,69,0.00,,---,0.16,VWS V14.00,2013-05-08 21:05:00,
2013-05-08 15:07:00,37.4,28.5,0.00,SW,234,0.0,0.0,70,0.00,,---,0.16,VWS V14.00,2013-05-08 21:07:00,
2013-05-08 15:08:00,37.4,28.5,0.00,SW,234,0.0,0.0,70,0.00,,---,0.16,VWS V14.00,2013-05-08 21:08:00,
2013-05-08 15:09:00,37.4,28.5,0.00,SW,234,0.0,0.0,70,0.00,,---,0.16,VWS V14.00,2013-05-08 21:09:00,
2013-05-08 15:10:00,37.4,28.5,0.00,SW,234,0.0,0.0,70,0.00,,---,0.16,VWS V14.00,2013-05-08 21:10:00,
2013-05-08 15:12:00,37.2,28.4,0.00,SW,234,0.0,0.0,70,0.00,,---,0.16,VWS V14.00,2013-05-08 21:12:00,
2013-05-08 15:13:00,37.2,28.4,0.00,SW,234,0.0,0.0,70,0.00,,---,0.16,VWS V14.00,2013-05-08 21:13:00,
2013-05-08 15:14:00,37.2,28.4,0.00,SW,234,0.0,0.0,70,0.00,,---,0.16,VWS V14.00,2013-05-08 21:14:00,
2013-05-08 15:15:00,37.2,28.7,0.00,SW,222,0.0,0.0,71,0.00,,---,0.16,VWS V14.00,2013-05-08 21:15:00,
2013-05-08 15:17:00,37.2,28.7,0.00,SW,222,0.0,0.0,71,0.00,,---,0.16,VWS V14.00,2013-05-08 21:17:00,
2013-05-08 15:18:00,37.0,28.5,0.00,SW,222,0.0,0.0,71,0.00,,---,0.16,VWS V14.00,2013-05-08 21:18:00,
2013-05-08 15:19:00,37.0,28.5,0.00,SW,222,0.0,0.0,71,0.00,,---,0.16,VWS V14.00,2013-05-08 21:19:00,
2013-05-08 15:20:00,37.0,28.5,0.00,SW,222,0.0,0.0,71,0.00,,---,0.16,VWS V14.00,2013-05-08 21:20:00,
2013-05-08 15:22:00,37.0,28.5,0.00,SW,222,0.0,0.0,71,0.00,,---,0.16,VWS V14.00,2013-05-08 21:22:00,
2013-05-08 15:23:00,37.0,28.5,0.00,SW,222,0.0,0.0,71,0.00,,---,0.16,VWS V14.00,2013-05-08 21:23:00,
2013-05-08 15:24:00,37.0,28.5,0.00,SW,223,0.0,0.0,71,0.00,,---,0.16,VWS V14.00,2013-05-08 21:24:00,
2013-05-08 15:25:00,36.9,28.4,0.00,SW,222,0.0,0.0,71,0.00,,---,0.16,VWS V14.00,2013-05-08 21:25:00,
2013-05-08 15:27:00,36.9,28.4,0.00,SW,222,0.0,0.0,71,0.00,,---,0.16,VWS V14.00,2013-05-08 21:27:00,
2013-05-08 15:28:00,36.9,28.4,0.00,SW,222,0.0,0.0,71,0.00,,---,0.16,VWS V14.00,2013-05-08 21:28:00,
2013-05-08 15:29:00,36.9,28.7,0.00,SW,223,0.0,0.0,72,0.00,,---,0.16,VWS V14.00,2013-05-08 21:29:00,
2013-05-08 15:30:00,36.9,28.7,0.00,SW,222,0.0,0.0,72,0.00,,---,0.16,VWS V14.00,2013-05-08 21:30:00,
2013-05-08 15:31:00,36.9,28.7,0.00,SW,222,0.0,0.0,72,0.00,,---,0.16,VWS V14.00,2013-05-08 21:31:00,
2013-05-08 15:32:00,36.9,28.7,0.00,SW,222,0.0,0.0,72,0.00,,---,0.16,VWS V14.00,2013-05-08 21:32:00,
2013-05-08 15:33:00,36.9,28.7,0.00,SW,222,0.0,0.0,72,0.00,,---,0.16,VWS V14.00,2013-05-08 21:33:00,
2013-05-08 15:34:00,36.9,28.7,0.00,SW,229,0.0,0.0,72,0.00,,---,0.16,VWS V14.00,2013-05-08 21:34:00,
2013-05-08 15:36:00,36.9,28.7,0.00,SW,229,0.0,0.0,72,0.00,,---,0.16,VWS V14.00,2013-05-08 21:36:00,
2013-05-08 15:37:00,36.7,28.5,0.00,SW,229,0.0,0.0,72,0.00,,---,0.16,VWS V14.00,2013-05-08 21:37:00,
2013-05-08 15:38:00,36.7,28.5,0.00,SW,229,0.0,0.0,72,0.00,,---,0.16,VWS V14.00,2013-05-08 21:38:00,
2013-05-08 15:40:00,36.7,28.9,0.00,SW,229,0.0,0.0,73,0.00,,---,0.16,VWS V14.00,2013-05-08 21:40:00,
2013-05-08 15:41:00,36.7,28.9,0.00,SW,229,0.0,0.0,73,0.00,,---,0.16,VWS V14.00,2013-05-08 21:41:00,
2013-05-08 15:42:00,36.7,28.9,0.00,SW,229,0.0,0.0,73,0.00,,---,0.16,VWS V14.00,2013-05-08 21:42:00,
2013-05-08 15:44:00,36.7,28.9,0.00,SW,230,0.0,0.0,73,0.00,,---,0.16,VWS V14.00,2013-05-08 21:44:00,
2013-05-08 15:45:00,36.7,28.9,0.00,SW,229,0.0,0.0,73,0.00,,---,0.16,VWS V14.00,2013-05-08 21:45:00,
2013-05-08 15:46:00,36.7,28.9,0.00,SW,230,0.0,0.0,73,0.00,,---,0.16,VWS V14.00,2013-05-08 21:46:00,
2013-05-08 15:47:00,36.7,28.9,0.00,SW,229,0.0,0.0,73,0.00,,---,0.16,VWS V14.00,2013-05-08 21:47:00,
2013-05-08 15:49:00,36.7,28.9,0.00,SW,229,0.0,0.0,73,0.00,,---,0.16,VWS V14.00,2013-05-08 21:49:00,
2013-05-08 15:50:00,36.7,28.9,0.00,SW,230,0.0,0.0,73,0.00,,---,0.16,VWS V14.00,2013-05-08 21:50:00,
2013-05-08 15:51:00,36.7,28.9,0.00,SW,229,0.0,0.0,73,0.00,,---,0.16,VWS V14.00,2013-05-08 21:51:00,
2013-05-08 15:52:00,36.7,28.9,0.00,SW,229,0.0,0.0,73,0.00,,---,0.16,VWS V14.00,2013-05-08 21:52:00,
2013-05-08 15:54:00,36.7,28.9,0.00,SW,229,0.0,0.0,73,0.00,,---,0.16,VWS V14.00,2013-05-08 21:54:00,
2013-05-08 15:55:00,36.7,28.9,0.00,SW,230,0.0,0.0,73,0.00,,---,0.16,VWS V14.00,2013-05-08 21:55:00,
2013-05-08 15:56:00,36.7,28.9,0.00,SW,229,0.0,0.0,73,0.00,,---,0.16,VWS V14.00,2013-05-08 21:56:00,
2013-05-08 15:57:00,36.5,29.0,0.00,SW,229,0.0,0.0,74,0.00,,---,0.16,VWS V14.00,2013-05-08 21:57:00,
2013-05-08 15:59:00,36.5,29.0,0.00,SW,229,0.0,0.0,74,0.00,,---,0.16,VWS V14.00,2013-05-08 21:59:00,
2013-05-08 16:00:00,36.5,29.0,0.00,SW,229,0.0,0.0,74,0.00,,---,0.16,VWS V14.00,2013-05-08 22:00:00,
2013-05-08 16:01:00,36.5,29.0,0.00,SW,229,0.0,0.0,74,0.00,,---,0.16,VWS V14.00,2013-05-08 22:01:00,
2013-05-08 16:02:00,36.5,29.0,0.00,SW,229,0.0,0.0,74,0.00,,---,0.16,VWS V14.00,2013-05-08 22:02:00,
2013-05-08 16:04:00,36.5,29.0,0.00,SW,229,0.0,0.0,74,0.00,,---,0.16,VWS V14.00,2013-05-08 22:04:00,
2013-05-08 16:05:00,36.5,29.0,0.00,SW,229,0.0,0.0,74,0.00,,---,0.16,VWS V14.00,2013-05-08 22:05:00,
2013-05-08 16:06:00,36.5,29.0,0.00,SW,229,0.0,0.0,74,0.00,,---,0.16,VWS V14.00,2013-05-08 22:06:00,
2013-05-08 16:07:00,36.5,29.3,0.00,SW,229,0.0,0.0,75,0.00,,---,0.16,VWS V14.00,2013-05-08 22:07:00,
2013-05-08 16:09:00,36.5,29.3,0.00,SW,229,0.0,0.0,75,0.00,,---,0.16,VWS V14.00,2013-05-08 22:09:00,
2013-05-08 16:10:00,36.5,29.3,0.00,SW,229,0.0,0.0,75,0.00,,---,0.16,VWS V14.00,2013-05-08 22:10:00,
2013-05-08 16:11:00,36.5,29.3,0.00,SW,229,0.0,0.0,75,0.00,,---,0.16,VWS V14.00,2013-05-08 22:11:00,
2013-05-08 16:13:00,36.5,29.3,0.00,SW,229,0.0,0.0,75,0.00,,---,0.16,VWS V14.00,2013-05-08 22:13:00,
2013-05-08 16:14:00,36.5,29.3,0.00,WSW,244,0.0,0.0,75,0.00,,---,0.16,VWS V14.00,2013-05-08 22:14:00,
2013-05-08 16:16:00,36.5,29.3,0.00,WSW,244,0.0,0.0,75,0.00,,---,0.16,VWS V14.00,2013-05-08 22:16:00,
2013-05-08 16:18:00,36.7,29.5,0.00,WSW,244,0.0,0.0,75,0.00,,---,0.16,VWS V14.00,2013-05-08 22:18:00,
2013-05-08 16:19:00,36.7,29.8,0.00,WSW,244,0.0,0.0,76,0.00,,---,0.16,VWS V14.00,2013-05-08 22:19:00,
2013-05-08 16:21:00,36.7,29.8,0.00,WSW,244,0.0,0.0,76,0.00,,---,0.16,VWS V14.00,2013-05-08 22:21:00,
2013-05-08 16:23:00,36.5,29.7,0.00,WSW,244,0.0,0.0,76,0.00,,---,0.16,VWS V14.00,2013-05-08 22:23:00,
2013-05-08 16:24:00,36.5,29.7,0.00,WSW,244,0.0,0.0,76,0.00,,---,0.16,VWS V14.00,2013-05-08 22:24:00,
2013-05-08 16:26:00,36.5,29.7,0.00,WSW,244,0.0,0.0,76,0.00,,---,0.16,VWS V14.00,2013-05-08 22:26:00,
2013-05-08 16:27:00,36.5,29.7,0.00,WSW,244,0.0,0.0,76,0.00,,---,0.16,VWS V14.00,2013-05-08 22:27:00,
2013-05-08 16:28:00,36.5,30.0,0.00,WSW,244,0.0,0.0,77,0.00,,---,0.16,VWS V14.00,2013-05-08 22:28:00,
2013-05-08 16:30:00,36.5,30.0,0.00,WSW,244,0.0,0.0,77,0.00,,---,0.16,VWS V14.00,2013-05-08 22:30:00,
2013-05-08 16:31:00,36.5,29.7,0.00,WSW,244,0.0,0.0,76,0.00,,---,0.16,VWS V14.00,2013-05-08 22:31:00,
2013-05-08 16:32:00,36.5,29.7,0.00,WSW,244,0.0,0.0,76,0.00,,---,0.16,VWS V14.00,2013-05-08 22:32:00,
2013-05-08 16:33:00,36.5,29.7,0.00,WSW,244,0.0,0.0,76,0.00,,---,0.16,VWS V14.00,2013-05-08 22:33:00,
2013-05-08 16:35:00,36.5,30.0,0.00,WSW,244,0.0,0.0,77,0.00,,---,0.16,VWS V14.00,2013-05-08 22:35:00,
2013-05-08 16:36:00,36.5,30.0,0.00,WSW,244,0.0,0.0,77,0.00,,---,0.16,VWS V14.00,2013-05-08 22:36:00,
2013-05-08 16:37:00,36.5,30.0,0.00,WSW,244,0.0,0.0,77,0.00,,---,0.16,VWS V14.00,2013-05-08 22:37:00,
2013-05-08 16:38:00,36.5,30.0,0.00,WSW,244,0.0,0.0,77,0.00,,---,0.16,VWS V14.00,2013-05-08 22:38:00,
2013-05-08 16:40:00,36.5,30.0,0.00,WSW,244,0.0,0.0,77,0.00,,---,0.16,VWS V14.00,2013-05-08 22:40:00,
2013-05-08 16:41:00,36.5,30.0,0.00,WSW,244,0.0,0.0,77,0.00,,---,0.16,VWS V14.00,2013-05-08 22:41:00,
2013-05-08 16:42:00,36.5,29.7,0.00,WSW,244,0.0,0.0,76,0.00,,---,0.16,VWS V14.00,2013-05-08 22:42:00,
2013-05-08 16:43:00,36.5,29.7,0.00,WSW,244,0.0,0.0,76,0.00,,---,0.16,VWS V14.00,2013-05-08 22:43:00,
2013-05-08 16:45:00,36.5,29.7,0.00,WSW,244,0.0,0.0,76,0.00,,---,0.16,VWS V14.00,2013-05-08 22:45:00,
2013-05-08 16:46:00,36.5,29.7,0.00,WSW,244,0.0,0.0,76,0.00,,---,0.16,VWS V14.00,2013-05-08 22:46:00,
2013-05-08 16:47:00,36.5,29.7,0.00,WSW,244,0.0,0.0,76,0.00,,---,0.16,VWS V14.00,2013-05-08 22:47:00,
2013-05-08 16:48:00,36.5,29.7,0.00,WSW,244,0.0,0.0,76,0.00,,---,0.16,VWS V14.00,2013-05-08 22:48:00,
2013-05-08 16:50:00,36.3,29.8,0.00,WSW,244,0.0,0.0,77,0.00,,---,0.16,VWS V14.00,2013-05-08 22:50:00,
2013-05-08 16:51:00,36.3,29.8,0.00,WSW,244,0.0,0.0,77,0.00,,---,0.16,VWS V14.00,2013-05-08 22:51:00,
2013-05-08 16:52:00,36.3,29.8,0.00,WSW,244,0.0,0.0,77,0.00,,---,0.16,VWS V14.00,2013-05-08 22:52:00,
2013-05-08 16:54:00,36.3,29.8,0.00,WSW,244,0.0,0.0,77,0.00,,---,0.16,VWS V14.00,2013-05-08 22:54:00,
2013-05-08 16:55:00,36.3,29.8,0.00,WSW,244,0.0,0.0,77,0.00,,---,0.16,VWS V14.00,2013-05-08 22:55:00,
2013-05-08 16:56:00,36.3,29.8,0.00,WSW,244,0.0,0.0,77,0.00,,---,0.16,VWS V14.00,2013-05-08 22:56:00,
2013-05-08 16:57:00,36.3,29.8,0.00,WSW,244,0.0,0.0,77,0.00,,---,0.16,VWS V14.00,2013-05-08 22:57:00,
2013-05-08 16:59:00,36.3,29.8,0.00,WSW,244,0.0,0.0,77,0.00,,---,0.16,VWS V14.00,2013-05-08 22:59:00,
2013-05-08 17:00:00,36.3,29.8,0.00,WSW,244,0.0,0.0,77,0.00,,---,0.16,VWS V14.00,2013-05-08 23:00:00,
2013-05-08 17:01:00,36.3,29.8,0.00,WSW,244,0.0,0.0,77,0.00,,---,0.16,VWS V14.00,2013-05-08 23:01:00,
2013-05-08 17:02:00,36.3,29.8,0.00,WSW,244,0.0,0.0,77,0.00,,---,0.16,VWS V14.00,2013-05-08 23:02:00,
2013-05-08 17:05:00,36.3,29.8,0.00,WSW,244,0.0,0.0,77,0.00,,---,0.16,VWS V14.00,2013-05-08 23:05:00,
2013-05-08 17:06:00,36.3,29.8,0.00,WSW,244,0.0,0.0,77,0.00,,---,0.16,VWS V14.00,2013-05-08 23:06:00,
2013-05-08 17:07:00,36.3,29.8,0.00,WSW,244,0.0,0.0,77,0.00,,---,0.16,VWS V14.00,2013-05-08 23:07:00,
2013-05-08 17:10:00,36.3,29.8,0.00,WSW,244,0.0,0.0,77,0.00,,---,0.16,VWS V14.00,2013-05-08 23:10:00,
2013-05-08 17:12:00,36.3,29.8,0.00,WSW,244,0.0,0.0,77,0.00,,---,0.16,VWS V14.00,2013-05-08 23:12:00,
2013-05-08 17:15:00,36.1,29.6,0.00,WSW,244,0.0,0.0,77,0.00,,---,0.16,VWS V14.00,2013-05-08 23:15:00,
2013-05-08 17:17:00,36.1,30.0,0.00,WSW,244,0.0,0.0,78,0.00,,---,0.16,VWS V14.00,2013-05-08 23:17:00,
2013-05-08 17:18:00,36.1,30.0,0.00,WSW,244,0.0,0.0,78,0.00,,---,0.16,VWS V14.00,2013-05-08 23:18:00,
2013-05-08 17:20:00,36.1,30.0,0.00,WSW,244,0.0,0.0,78,0.00,,---,0.16,VWS V14.00,2013-05-08 23:20:00,
2013-05-08 17:22:00,36.1,30.0,0.00,WSW,244,0.0,0.0,78,0.00,,---,0.16,VWS V14.00,2013-05-08 23:22:00,
2013-05-08 17:23:00,36.1,30.0,0.00,WSW,244,0.0,0.0,78,0.00,,---,0.16,VWS V14.00,2013-05-08 23:23:00,
2013-05-08 17:25:00,36.0,29.8,0.00,WSW,244,0.0,0.0,78,0.00,,---,0.16,VWS V14.00,2013-05-08 23:25:00,
2013-05-08 17:27:00,36.0,29.8,0.00,WSW,244,0.0,0.0,78,0.00,,---,0.16,VWS V14.00,2013-05-08 23:27:00,
2013-05-08 17:28:00,36.0,29.8,0.00,WSW,244,0.0,0.0,78,0.00,,---,0.16,VWS V14.00,2013-05-08 23:28:00,
2013-05-08 17:30:00,36.0,29.8,0.00,WSW,244,0.0,0.0,78,0.00,,---,0.16,VWS V14.00,2013-05-08 23:30:00,
2013-05-08 17:32:00,36.0,29.8,0.00,WSW,244,0.0,0.0,78,0.00,,---,0.16,VWS V14.00,2013-05-08 23:32:00,
2013-05-08 17:33:00,36.0,29.8,0.00,WSW,244,0.0,0.0,78,0.00,,---,0.16,VWS V14.00,2013-05-08 23:33:00,
2013-05-08 17:35:00,36.0,29.8,0.00,WSW,244,0.0,0.0,78,0.00,,---,0.16,VWS V14.00,2013-05-08 23:35:00,
2013-05-08 17:36:00,36.0,29.8,0.00,WSW,244,0.0,0.0,78,0.00,,---,0.16,VWS V14.00,2013-05-08 23:36:00,
2013-05-08 17:37:00,35.8,29.6,0.00,WSW,244,0.0,0.0,78,0.00,,---,0.16,VWS V14.00,2013-05-08 23:37:00,
2013-05-08 17:38:00,35.8,29.6,0.00,WSW,244,0.0,0.0,78,0.00,,---,0.16,VWS V14.00,2013-05-08 23:38:00,
2013-05-08 17:41:00,35.8,29.6,0.00,WSW,244,0.0,0.0,78,0.00,,---,0.16,VWS V14.00,2013-05-08 23:41:00,
2013-05-08 17:42:00,35.8,29.6,0.00,WSW,244,0.0,0.0,78,0.00,,---,0.16,VWS V14.00,2013-05-08 23:42:00,
2013-05-08 17:43:00,35.8,29.3,0.00,WSW,244,0.0,0.0,77,0.00,,---,0.16,VWS V14.00,2013-05-08 23:43:00,
2013-05-08 17:46:00,35.8,29.3,0.00,WSW,244,0.0,0.0,77,0.00,,---,0.16,VWS V14.00,2013-05-08 23:46:00,
2013-05-08 17:47:00,35.8,29.3,0.00,WSW,244,0.0,0.0,77,0.00,,---,0.16,VWS V14.00,2013-05-08 23:47:00,
2013-05-08 17:48:00,35.8,29.3,0.00,WSW,244,0.0,0.0,77,0.00,,---,0.16,VWS V14.00,2013-05-08 23:48:00,
2013-05-08 17:51:00,35.8,29.3,0.00,WSW,245,0.0,0.0,77,0.00,,---,0.16,VWS V14.00,2013-05-08 23:51:00,
2013-05-08 17:52:00,35.6,29.1,0.00,WSW,245,0.0,0.0,77,0.00,,---,0.16,VWS V14.00,2013-05-08 23:52:00,
2013-05-08 17:53:00,35.6,29.1,0.00,WSW,245,0.0,0.0,77,0.00,,---,0.16,VWS V14.00,2013-05-08 23:53:00,
2013-05-08 17:54:00,35.6,29.1,0.00,WSW,245,0.0,0.0,77,0.00,,---,0.16,VWS V14.00,2013-05-08 23:54:00,
2013-05-08 17:56:00,35.6,29.1,0.00,WSW,245,0.0,0.0,77,0.00,,---,0.16,VWS V14.00,2013-05-08 23:56:00,
2013-05-08 17:58:00,35.6,29.1,0.00,WSW,245,0.0,0.0,77,0.00,,---,0.16,VWS V14.00,2013-05-08 23:58:00,
2013-05-08 17:59:00,35.6,29.1,0.00,WSW,245,0.0,0.0,77,0.00,,---,0.16,VWS V14.00,2013-05-08 23:59:00,
2013-05-08 18:01:00,35.6,29.1,0.00,WSW,245,0.0,0.0,77,0.00,,---,0.16,VWS V14.00,2013-05-09 00:01:00,
2013-05-08 18:03:00,35.6,29.1,0.00,WSW,245,0.0,0.0,77,0.00,,---,0.16,VWS V14.00,2013-05-09 00:03:00,
2013-05-08 18:04:00,35.6,29.1,0.00,WSW,245,0.0,0.0,77,0.00,,---,0.16,VWS V14.00,2013-05-09 00:04:00,
2013-05-08 18:06:00,35.6,29.1,0.00,WSW,245,0.0,0.0,77,0.00,,---,0.16,VWS V14.00,2013-05-09 00:06:00,
2013-05-08 18:08:00,35.6,29.1,0.00,WSW,245,0.0,0.0,77,0.00,,---,0.16,VWS V14.00,2013-05-09 00:08:00,
2013-05-08 18:09:00,35.6,29.1,0.00,WSW,245,0.0,0.0,77,0.00,,---,0.16,VWS V14.00,2013-05-09 00:09:00,
2013-05-08 18:11:00,35.6,29.1,0.00,WSW,245,0.0,0.0,77,0.00,,---,0.16,VWS V14.00,2013-05-09 00:11:00,
2013-05-08 18:13:00,35.6,28.8,0.00,WSW,245,0.0,0.0,76,0.00,,---,0.16,VWS V14.00,2013-05-09 00:13:00,
2013-05-08 18:15:00,35.4,28.9,0.00,WSW,245,0.0,0.0,77,0.00,,---,0.16,VWS V14.00,2013-05-09 00:15:00,
2013-05-08 18:16:00,35.4,28.9,0.00,WSW,245,0.0,0.0,77,0.00,,---,0.16,VWS V14.00,2013-05-09 00:16:00,
2013-05-08 18:18:00,35.4,28.9,0.00,WSW,245,0.0,0.0,77,0.00,,---,0.16,VWS V14.00,2013-05-09 00:18:00,
2013-05-08 18:20:00,35.4,28.9,0.00,WSW,245,0.0,0.0,77,0.00,,---,0.16,VWS V14.00,2013-05-09 00:20:00,
2013-05-08 18:21:00,35.4,28.9,0.00,WSW,245,0.0,0.0,77,0.00,,---,0.16,VWS V14.00,2013-05-09 00:21:00,
2013-05-08 18:22:00,35.4,28.9,0.00,WSW,245,0.0,0.0,77,0.00,,---,0.16,VWS V14.00,2013-05-09 00:22:00,
2013-05-08 18:23:00,35.4,28.9,0.00,WSW,245,0.0,0.0,77,0.00,,---,0.16,VWS V14.00,2013-05-09 00:23:00,
2013-05-08 18:24:00,35.4,28.9,0.00,WSW,245,0.0,0.0,77,0.00,,---,0.16,VWS V14.00,2013-05-09 00:24:00,
2013-05-08 18:25:00,35.4,28.9,0.00,WSW,246,0.0,0.0,77,0.00,,---,0.16,VWS V14.00,2013-05-09 00:25:00,
2013-05-08 18:26:00,35.4,28.9,0.00,WSW,245,0.0,0.0,77,0.00,,---,0.16,VWS V14.00,2013-05-09 00:26:00,
2013-05-08 18:27:00,35.4,28.9,0.00,WSW,245,0.0,0.0,77,0.00,,---,0.16,VWS V14.00,2013-05-09 00:27:00,
2013-05-08 18:28:00,35.4,28.9,0.00,WSW,245,0.0,0.0,77,0.00,,---,0.16,VWS V14.00,2013-05-09 00:28:00,
2013-05-08 18:29:00,35.4,28.9,0.00,WSW,245,0.0,0.0,77,0.00,,---,0.16,VWS V14.00,2013-05-09 00:29:00,
2013-05-08 18:30:00,35.4,28.9,0.00,WSW,245,0.0,0.0,77,0.00,,---,0.16,VWS V14.00,2013-05-09 00:30:00,
2013-05-08 18:31:00,35.4,28.9,0.00,WSW,241,0.0,0.0,77,0.00,,---,0.16,VWS V14.00,2013-05-09 00:31:00,
2013-05-08 18:32:00,35.4,28.9,0.00,WSW,245,0.0,0.0,77,0.00,,---,0.16,VWS V14.00,2013-05-09 00:32:00,
2013-05-08 18:33:00,35.4,28.9,0.00,WSW,245,0.0,0.0,77,0.00,,---,0.16,VWS V14.00,2013-05-09 00:33:00,
2013-05-08 18:35:00,35.2,28.8,0.00,WSW,245,0.0,0.0,77,0.00,,---,0.16,VWS V14.00,2013-05-09 00:35:00,
2013-05-08 18:37:00,35.2,28.8,0.00,WSW,245,0.0,0.0,77,0.00,,---,0.16,VWS V14.00,2013-05-09 00:37:00,
2013-05-08 18:38:00,35.2,28.8,0.00,WSW,245,0.0,0.0,77,0.00,,---,0.16,VWS V14.00,2013-05-09 00:38:00,
2013-05-08 18:40:00,35.2,28.8,0.00,WSW,245,0.0,0.0,77,0.00,,---,0.16,VWS V14.00,2013-05-09 00:40:00,
2013-05-08 18:42:00,35.2,28.8,0.00,WSW,244,0.0,0.0,77,0.00,,---,0.16,VWS V14.00,2013-05-09 00:42:00,
2013-05-08 18:44:00,35.2,28.8,0.00,WSW,245,0.0,0.0,77,0.00,,---,0.16,VWS V14.00,2013-05-09 00:44:00,
2013-05-08 18:45:00,35.2,28.8,0.00,WSW,245,0.0,0.0,77,0.00,,---,0.16,VWS V14.00,2013-05-09 00:45:00,
2013-05-08 18:47:00,35.2,28.8,0.00,WSW,245,0.0,0.0,77,0.00,,---,0.16,VWS V14.00,2013-05-09 00:47:00,
2013-05-08 18:49:00,35.2,28.8,0.00,WSW,245,0.0,0.0,77,0.00,,---,0.16,VWS V14.00,2013-05-09 00:49:00,
2013-05-08 18:50:00,35.1,28.6,0.00,WSW,245,0.0,0.0,77,0.00,,---,0.16,VWS V14.00,2013-05-09 00:50:00,
2013-05-08 18:52:00,35.1,28.6,0.00,WSW,245,0.0,0.0,77,0.00,,---,0.16,VWS V14.00,2013-05-09 00:52:00,
2013-05-08 18:53:00,35.1,28.6,0.00,WSW,245,0.0,0.0,77,0.00,,---,0.16,VWS V14.00,2013-05-09 00:53:00,
2013-05-08 18:54:00,35.1,28.6,0.00,WSW,246,0.0,0.0,77,0.00,,---,0.00,VWS V14.00,2013-05-09 00:54:00,
2013-05-08 18:55:00,35.1,28.6,0.00,WSW,245,0.0,0.0,77,0.00,,---,0.16,VWS V14.00,2013-05-09 00:55:00,
2013-05-08 18:58:00,35.1,28.6,0.00,WSW,245,0.0,0.0,77,0.00,,---,0.16,VWS V14.00,2013-05-09 00:58:00,
2013-05-08 18:59:00,35.1,28.6,0.00,WSW,245,0.0,0.0,77,0.00,,---,0.16,VWS V14.00,2013-05-09 00:59:00,
2013-05-08 19:00:00,35.1,28.6,0.00,WSW,245,0.0,0.0,77,0.00,,---,0.16,VWS V14.00,2013-05-09 01:00:00,
2013-05-08 19:01:00,35.1,28.6,0.00,WSW,245,0.0,0.0,77,0.00,,---,0.16,VWS V14.00,2013-05-09 01:01:00,
2013-05-08 19:03:00,35.1,28.6,0.00,WSW,245,0.0,0.0,77,0.00,,---,0.16,VWS V14.00,2013-05-09 01:03:00,
2013-05-08 19:04:00,35.1,28.6,0.00,WSW,245,0.0,0.0,77,0.00,,---,0.16,VWS V14.00,2013-05-09 01:04:00,
2013-05-08 19:05:00,35.1,28.6,0.00,WSW,246,0.0,0.0,77,0.00,,---,0.16,VWS V14.00,2013-05-09 01:05:00,
2013-05-08 19:06:00,35.1,28.6,0.00,WSW,247,0.0,0.0,77,0.00,,---,0.16,VWS V14.00,2013-05-09 01:06:00,
2013-05-08 19:08:00,35.1,28.6,0.00,WSW,246,0.0,0.0,77,0.00,,---,0.16,VWS V14.00,2013-05-09 01:08:00,
2013-05-08 19:09:00,35.1,28.6,0.00,WSW,246,0.0,0.0,77,0.00,,---,0.16,VWS V14.00,2013-05-09 01:09:00,
2013-05-08 19:11:00,35.1,28.9,0.00,WSW,251,0.0,0.0,78,0.00,,---,0.16,VWS V14.00,2013-05-09 01:11:00,
2013-05-08 19:13:00,34.9,28.7,0.00,WSW,252,0.0,0.0,78,0.00,,---,0.16,VWS V14.00,2013-05-09 01:13:00,
2013-05-08 19:14:00,34.9,28.7,0.00,WSW,251,0.0,0.0,78,0.00,,---,0.16,VWS V14.00,2013-05-09 01:14:00,
2013-05-08 19:16:00,34.9,28.7,0.00,WSW,251,0.0,0.0,78,0.00,,---,0.16,VWS V14.00,2013-05-09 01:16:00,
2013-05-08 19:18:00,34.9,28.4,0.00,WSW,251,0.0,0.0,77,0.00,,---,0.16,VWS V14.00,2013-05-09 01:18:00,
2013-05-08 19:19:00,34.9,28.4,0.00,WSW,251,0.0,0.0,77,0.00,,---,0.16,VWS V14.00,2013-05-09 01:19:00,
2013-05-08 19:21:00,34.9,28.4,0.00,WSW,251,0.0,0.0,77,0.00,,---,0.16,VWS V14.00,2013-05-09 01:21:00,
2013-05-08 19:23:00,34.9,28.4,0.00,WSW,251,0.0,0.0,77,0.00,,---,0.16,VWS V14.00,2013-05-09 01:23:00,
2013-05-08 19:24:00,34.9,28.4,0.00,WSW,251,0.0,0.0,77,0.00,,---,0.16,VWS V14.00,2013-05-09 01:24:00,
2013-05-08 19:26:00,34.9,28.1,0.00,WSW,251,0.0,0.0,76,0.00,,---,0.16,VWS V14.00,2013-05-09 01:26:00,
2013-05-08 19:28:00,34.9,28.1,0.00,WSW,251,0.0,0.0,76,0.00,,---,0.16,VWS V14.00,2013-05-09 01:28:00,
2013-05-08 19:30:00,34.9,28.1,0.00,WSW,251,0.0,0.0,76,0.00,,---,0.16,VWS V14.00,2013-05-09 01:30:00,
2013-05-08 19:31:00,34.9,27.8,0.00,WSW,251,0.0,0.0,75,0.00,,---,0.16,VWS V14.00,2013-05-09 01:31:00,
2013-05-08 19:33:00,34.9,27.8,0.00,WSW,251,0.0,0.0,75,0.00,,---,0.16,VWS V14.00,2013-05-09 01:33:00,
2013-05-08 19:35:00,34.9,27.8,0.00,WSW,251,0.0,0.0,75,0.00,,---,0.16,VWS V14.00,2013-05-09 01:35:00,
2013-05-08 19:36:00,34.9,27.8,0.00,WSW,251,0.0,0.0,75,0.00,,---,0.16,VWS V14.00,2013-05-09 01:36:00,
2013-05-08 19:38:00,34.9,28.1,0.00,WSW,250,0.0,0.0,76,0.00,,---,0.16,VWS V14.00,2013-05-09 01:38:00,
2013-05-08 19:39:00,34.9,27.8,0.00,WSW,251,0.0,0.0,75,0.00,,---,0.16,VWS V14.00,2013-05-09 01:39:00,
2013-05-08 19:40:00,34.9,27.8,0.00,WSW,251,0.0,0.0,75,0.00,,---,0.16,VWS V14.00,2013-05-09 01:40:00,
2013-05-08 19:41:00,34.9,27.8,0.00,WSW,251,0.0,0.0,75,0.00,,---,0.16,VWS V14.00,2013-05-09 01:41:00,
2013-05-08 19:42:00,34.9,27.8,0.00,WSW,251,0.0,0.0,75,0.00,,---,0.16,VWS V14.00,2013-05-09 01:42:00,
2013-05-08 19:43:00,34.9,27.8,0.00,WSW,251,0.0,0.0,75,0.00,,---,0.16,VWS V14.00,2013-05-09 01:43:00,
2013-05-08 19:44:00,34.9,27.8,0.00,WSW,251,0.0,0.0,75,0.00,,---,0.16,VWS V14.00,2013-05-09 01:44:00,
2013-05-08 19:45:00,34.9,28.1,0.00,WSW,250,0.0,0.0,76,0.00,,---,0.16,VWS V14.00,2013-05-09 01:45:00,
2013-05-08 19:46:00,34.9,28.1,0.00,WSW,251,0.0,0.0,76,0.00,,---,0.16,VWS V14.00,2013-05-09 01:46:00,
2013-05-08 19:47:00,34.9,28.1,0.00,WSW,251,0.0,0.0,76,0.00,,---,0.16,VWS V14.00,2013-05-09 01:47:00,
2013-05-08 19:48:00,34.9,28.1,0.00,WSW,251,0.0,0.0,76,0.00,,---,0.16,VWS V14.00,2013-05-09 01:48:00,
2013-05-08 19:49:00,34.9,28.1,0.00,WSW,251,0.0,0.0,76,0.00,,---,0.16,VWS V14.00,2013-05-09 01:49:00,
2013-05-08 19:50:00,34.9,28.1,0.00,WSW,251,0.0,0.0,76,0.00,,---,0.16,VWS V14.00,2013-05-09 01:50:00,
2013-05-08 19:52:00,34.9,28.1,0.00,WSW,251,0.0,0.0,76,0.00,,---,0.16,VWS V14.00,2013-05-09 01:52:00,
2013-05-08 19:53:00,34.7,27.9,0.00,WSW,251,0.0,0.0,76,0.00,,---,0.16,VWS V14.00,2013-05-09 01:53:00,
2013-05-08 19:54:00,34.7,28.2,0.00,WSW,251,0.0,0.0,77,0.00,,---,0.16,VWS V14.00,2013-05-09 01:54:00,
2013-05-08 19:55:00,34.7,27.9,0.00,WSW,251,0.0,0.0,76,0.00,,---,0.16,VWS V14.00,2013-05-09 01:55:00,
2013-05-08 19:57:00,34.7,28.2,0.00,WSW,250,0.0,0.0,77,0.00,,---,0.16,VWS V14.00,2013-05-09 01:57:00,
2013-05-08 19:58:00,34.7,27.9,0.00,WSW,251,0.0,0.0,76,0.00,,---,0.16,VWS V14.00,2013-05-09 01:58:00,
2013-05-08 19:59:00,34.7,27.9,0.00,WSW,251,0.0,0.0,76,0.00,,---,0.16,VWS V14.00,2013-05-09 01:59:00,
2013-05-08 20:00:00,34.7,27.9,0.00,WSW,251,0.0,0.0,76,0.00,,---,0.16,VWS V14.00,2013-05-09 02:00:00,
2013-05-08 20:02:00,34.7,27.9,0.00,WSW,251,0.0,0.0,76,0.00,,---,0.16,VWS V14.00,2013-05-09 02:02:00,
2013-05-08 20:03:00,34.7,27.9,0.00,WSW,251,0.0,0.0,76,0.00,,---,0.16,VWS V14.00,2013-05-09 02:03:00,
2013-05-08 20:04:00,34.7,27.9,0.00,WSW,251,0.0,0.0,76,0.00,,---,0.16,VWS V14.00,2013-05-09 02:04:00,
2013-05-08 20:06:00,34.7,27.9,0.00,WSW,251,0.0,0.0,76,0.00,,---,0.16,VWS V14.00,2013-05-09 02:06:00,
2013-05-08 20:07:00,34.7,27.9,0.00,WSW,251,0.0,0.0,76,0.00,,---,0.16,VWS V14.00,2013-05-09 02:07:00,
2013-05-08 20:08:00,34.7,27.9,0.00,WSW,251,0.0,0.0,76,0.00,,---,0.16,VWS V14.00,2013-05-09 02:08:00,
2013-05-08 20:10:00,34.7,27.9,0.00,WSW,251,0.0,0.0,76,0.00,,---,0.16,VWS V14.00,2013-05-09 02:10:00,
2013-05-08 20:11:00,34.7,27.9,0.00,WSW,251,0.0,0.0,76,0.00,,---,0.16,VWS V14.00,2013-05-09 02:11:00,
2013-05-08 20:12:00,34.5,28.1,0.00,WSW,251,0.0,0.0,77,0.00,,---,0.16,VWS V14.00,2013-05-09 02:12:00,
2013-05-08 20:14:00,34.5,27.8,0.00,WSW,251,0.0,0.0,76,0.00,,---,0.16,VWS V14.00,2013-05-09 02:14:00,
2013-05-08 20:15:00,34.5,27.8,0.00,WSW,251,0.0,0.0,76,0.00,,---,0.16,VWS V14.00,2013-05-09 02:15:00,
2013-05-08 20:16:00,34.5,27.8,0.00,WSW,251,0.0,0.0,76,0.00,,---,0.16,VWS V14.00,2013-05-09 02:16:00,
2013-05-08 20:17:00,34.5,28.1,0.00,WSW,251,0.0,0.0,77,0.00,,---,0.16,VWS V14.00,2013-05-09 02:17:00,
2013-05-08 20:19:00,34.5,28.1,0.00,WSW,251,0.0,0.0,77,0.00,,---,0.16,VWS V14.00,2013-05-09 02:19:00,
2013-05-08 20:20:00,34.5,28.1,0.00,WSW,251,0.0,0.0,77,0.00,,---,0.16,VWS V14.00,2013-05-09 02:20:00,
2013-05-08 20:21:00,34.5,28.1,0.00,WSW,251,0.0,0.0,77,0.00,,---,0.16,VWS V14.00,2013-05-09 02:21:00,
2013-05-08 20:22:00,34.5,28.1,0.00,WSW,252,0.0,0.0,77,0.00,,---,0.16,VWS V14.00,2013-05-09 02:22:00,
2013-05-08 20:24:00,34.5,28.4,0.00,WSW,251,0.0,0.0,78,0.00,,---,0.16,VWS V14.00,2013-05-09 02:24:00,
2013-05-08 20:26:00,34.5,28.4,0.00,WSW,251,0.0,0.0,78,0.00,,---,0.16,VWS V14.00,2013-05-09 02:26:00,
2013-05-08 20:27:00,34.5,28.4,0.00,WSW,249,0.0,0.0,78,0.00,,---,0.16,VWS V14.00,2013-05-09 02:27:00,
2013-05-08 20:29:00,34.3,28.2,0.00,WSW,251,0.0,0.0,78,0.00,,---,0.16,VWS V14.00,2013-05-09 02:29:00,
2013-05-08 20:31:00,34.3,28.2,0.00,WSW,251,0.0,0.0,78,0.00,,---,0.16,VWS V14.00,2013-05-09 02:31:00,
2013-05-08 20:32:00,34.5,28.4,0.00,WSW,252,0.0,0.0,78,0.00,,---,0.16,VWS V14.00,2013-05-09 02:32:00,
2013-05-08 20:34:00,34.3,28.5,0.00,West,276,0.0,0.0,79,0.00,,---,0.16,VWS V14.00,2013-05-09 02:34:00,
2013-05-08 20:36:00,34.3,28.2,0.00,West,276,0.0,0.0,78,0.00,,---,0.16,VWS V14.00,2013-05-09 02:36:00,
2013-05-08 20:37:00,34.3,28.2,0.00,West,271,0.0,0.0,78,0.00,,---,0.16,VWS V14.00,2013-05-09 02:37:00,
2013-05-08 20:38:00,34.3,28.2,0.00,West,276,0.0,0.0,78,0.00,,---,0.16,VWS V14.00,2013-05-09 02:38:00,
2013-05-08 20:39:00,34.3,28.2,0.00,West,276,0.0,0.0,78,0.00,,---,0.16,VWS V14.00,2013-05-09 02:39:00,
2013-05-08 20:41:00,34.3,27.9,0.00,West,276,0.0,0.0,77,0.00,,---,0.16,VWS V14.00,2013-05-09 02:41:00,
2013-05-08 20:42:00,34.3,28.2,0.00,West,274,0.0,0.0,78,0.00,,---,0.16,VWS V14.00,2013-05-09 02:42:00,
2013-05-08 20:43:00,34.3,28.2,0.00,West,276,0.0,0.0,78,0.00,,---,0.16,VWS V14.00,2013-05-09 02:43:00,
2013-05-08 20:44:00,34.3,28.2,0.00,West,276,0.0,0.0,78,0.00,,---,0.16,VWS V14.00,2013-05-09 02:44:00,
2013-05-08 20:46:00,34.3,27.9,0.00,West,276,0.0,0.0,77,0.00,,---,0.16,VWS V14.00,2013-05-09 02:46:00,
2013-05-08 20:47:00,34.3,28.2,0.00,West,276,0.0,0.0,78,0.00,,---,0.16,VWS V14.00,2013-05-09 02:47:00,
2013-05-08 20:48:00,34.3,28.2,0.00,West,276,0.0,0.0,78,0.00,,---,0.16,VWS V14.00,2013-05-09 02:48:00,
2013-05-08 20:49:00,34.3,28.2,0.00,West,276,0.0,0.0,78,0.00,,---,0.16,VWS V14.00,2013-05-09 02:49:00,
2013-05-08 20:51:00,34.3,28.2,0.00,WNW,295,0.0,0.0,78,0.00,,---,0.16,VWS V14.00,2013-05-09 02:51:00,
2013-05-08 20:53:00,34.3,28.2,0.00,WNW,295,0.0,0.0,78,0.00,,---,0.16,VWS V14.00,2013-05-09 02:53:00,
2013-05-08 20:54:00,34.3,28.2,0.00,West,272,0.0,0.0,78,0.00,,---,0.16,VWS V14.00,2013-05-09 02:54:00,
2013-05-08 20:56:00,34.3,28.2,0.00,WNW,285,0.0,0.0,78,0.00,,---,0.16,VWS V14.00,2013-05-09 02:56:00,
2013-05-08 20:57:00,34.3,28.2,0.00,WNW,285,0.0,0.0,78,0.00,,---,0.16,VWS V14.00,2013-05-09 02:57:00,
2013-05-08 20:58:00,34.3,28.2,0.00,WNW,285,0.0,0.0,78,0.00,,---,0.16,VWS V14.00,2013-05-09 02:58:00,
2013-05-08 21:00:00,34.3,28.2,0.00,WNW,285,0.0,0.0,78,0.00,,---,0.16,VWS V14.00,2013-05-09 03:00:00,
2013-05-08 21:01:00,34.3,28.2,0.00,WNW,285,0.0,0.0,78,0.00,,---,0.16,VWS V14.00,2013-05-09 03:01:00,
2013-05-08 21:02:00,34.3,28.2,0.00,WNW,284,0.0,0.0,78,0.00,,---,0.16,VWS V14.00,2013-05-09 03:02:00,
2013-05-08 21:03:00,34.3,28.2,0.00,WNW,285,0.0,0.0,78,0.00,,---,0.16,VWS V14.00,2013-05-09 03:03:00,
2013-05-08 21:05:00,34.3,28.2,0.00,WNW,285,0.0,0.0,78,0.00,,---,0.16,VWS V14.00,2013-05-09 03:05:00,
2013-05-08 21:07:00,34.3,27.9,0.00,West,279,0.0,0.0,77,0.00,,---,0.16,VWS V14.00,2013-05-09 03:07:00,
2013-05-08 21:08:00,34.3,28.2,0.00,WNW,283,0.0,0.0,78,0.00,,---,0.16,VWS V14.00,2013-05-09 03:08:00,
2013-05-08 21:09:00,34.3,28.2,0.00,WNW,285,0.0,0.0,78,0.00,,---,0.16,VWS V14.00,2013-05-09 03:09:00,
2013-05-08 21:10:00,34.3,28.2,0.00,WNW,285,0.0,0.0,78,0.00,,---,0.16,VWS V14.00,2013-05-09 03:10:00,
2013-05-08 21:12:00,34.3,28.2,0.00,WNW,285,0.0,0.0,78,0.00,,---,0.16,VWS V14.00,2013-05-09 03:12:00,
2013-05-08 21:13:00,34.3,28.2,0.00,WNW,285,0.0,0.0,78,0.00,,---,0.16,VWS V14.00,2013-05-09 03:13:00,
2013-05-08 21:14:00,34.3,28.2,0.00,WNW,285,0.0,0.0,78,0.00,,---,0.16,VWS V14.00,2013-05-09 03:14:00,
2013-05-08 21:15:00,34.3,28.2,0.00,WNW,285,0.0,0.0,78,0.00,,---,0.16,VWS V14.00,2013-05-09 03:15:00,
2013-05-08 21:17:00,34.3,27.9,0.00,WNW,284,0.0,0.0,77,0.00,,---,0.16,VWS V14.00,2013-05-09 03:17:00,
2013-05-08 21:18:00,34.3,27.9,0.00,WNW,285,0.0,0.0,77,0.00,,---,0.16,VWS V14.00,2013-05-09 03:18:00,
2013-05-08 21:19:00,34.3,28.2,0.00,WNW,285,0.0,0.0,78,0.00,,---,0.16,VWS V14.00,2013-05-09 03:19:00,
2013-05-08 21:20:00,34.3,28.2,0.00,West,281,0.0,0.0,78,0.00,,---,0.16,VWS V14.00,2013-05-09 03:20:00,
2013-05-08 21:22:00,34.3,28.2,0.00,West,278,0.0,0.0,78,0.00,,---,0.16,VWS V14.00,2013-05-09 03:22:00,
2013-05-08 21:24:00,34.3,28.2,0.00,West,278,0.0,0.0,78,0.00,,---,0.16,VWS V14.00,2013-05-09 03:24:00,
2013-05-08 21:25:00,34.3,28.2,0.00,West,278,0.0,0.0,78,0.00,,---,0.16,VWS V14.00,2013-05-09 03:25:00,
2013-05-08 21:27:00,34.3,28.2,0.00,West,278,0.0,0.0,78,0.00,,---,0.16,VWS V14.00,2013-05-09 03:27:00,
2013-05-08 21:29:00,34.3,28.2,0.00,West,278,0.0,0.0,78,0.00,,---,0.16,VWS V14.00,2013-05-09 03:29:00,
2013-05-08 21:30:00,34.3,28.2,0.00,West,278,0.0,0.0,78,0.00,,---,0.16,VWS V14.00,2013-05-09 03:30:00,
2013-05-08 21:32:00,34.3,28.2,0.00,West,278,0.0,0.0,78,0.00,,---,0.16,VWS V14.00,2013-05-09 03:32:00,
2013-05-08 21:34:00,34.3,28.2,0.00,West,278,0.0,0.0,78,0.00,,---,0.16,VWS V14.00,2013-05-09 03:34:00,
2013-05-08 21:35:00,34.3,28.5,0.00,West,278,0.0,0.0,79,0.00,,---,0.16,VWS V14.00,2013-05-09 03:35:00,
2013-05-08 21:37:00,34.3,28.2,0.00,West,278,0.0,0.0,78,0.00,,---,0.16,VWS V14.00,2013-05-09 03:37:00,
2013-05-08 21:39:00,34.2,28.3,0.00,West,268,0.0,0.0,79,0.00,,---,0.16,VWS V14.00,2013-05-09 03:39:00,
2013-05-08 21:40:00,34.2,28.3,0.00,West,278,0.0,0.0,79,0.00,,---,0.16,VWS V14.00,2013-05-09 03:40:00,
2013-05-08 21:42:00,34.2,28.3,0.00,West,273,0.0,0.0,79,0.00,,---,0.16,VWS V14.00,2013-05-09 03:42:00,
2013-05-08 21:44:00,34.2,28.3,0.00,West,278,0.0,0.0,79,0.00,,---,0.16,VWS V14.00,2013-05-09 03:44:00,
2013-05-08 21:45:00,34.2,28.3,0.00,West,278,0.0,0.0,79,0.00,,---,0.16,VWS V14.00,2013-05-09 03:45:00,
2013-05-08 21:48:00,34.2,28.0,0.00,West,278,0.0,0.0,78,0.00,,---,0.16,VWS V14.00,2013-05-09 03:48:00,
2013-05-08 21:49:00,34.2,28.0,0.00,West,271,0.0,0.0,78,0.00,,---,0.16,VWS V14.00,2013-05-09 03:49:00,
2013-05-08 21:50:00,34.2,28.0,0.00,West,273,0.0,0.0,78,0.00,,---,0.16,VWS V14.00,2013-05-09 03:50:00,
2013-05-08 21:53:00,34.2,28.0,0.00,West,275,0.0,0.0,78,0.00,,---,0.16,VWS V14.00,2013-05-09 03:53:00,
2013-05-08 21:54:00,34.2,28.0,0.00,West,277,0.0,0.0,78,0.00,,---,0.16,VWS V14.00,2013-05-09 03:54:00,
2013-05-08 21:55:00,34.2,28.0,0.00,West,278,0.0,0.0,78,0.00,,---,0.16,VWS V14.00,2013-05-09 03:55:00,
2013-05-08 21:58:00,34.2,28.3,0.00,West,276,0.0,0.0,79,0.00,,---,0.16,VWS V14.00,2013-05-09 03:58:00,
2013-05-08 22:00:00,34.2,28.3,0.00,West,276,0.0,0.0,79,0.00,,---,0.16,VWS V14.00,2013-05-09 04:00:00,
2013-05-08 22:01:00,34.2,28.3,0.00,West,276,0.0,0.0,79,0.00,,---,0.16,VWS V14.00,2013-05-09 04:01:00,
2013-05-08 22:06:00,34.0,28.2,0.00,West,274,0.0,0.0,79,0.00,,---,0.16,VWS V14.00,2013-05-09 04:06:00,
2013-05-08 22:11:00,34.0,27.9,0.00,West,274,0.0,0.0,78,0.00,,---,0.16,VWS V14.00,2013-05-09 04:11:00,
2013-05-08 22:16:00,34.0,27.9,0.00,West,274,0.0,0.0,78,0.00,,---,0.16,VWS V14.00,2013-05-09 04:16:00,
2013-05-08 22:21:00,34.0,27.5,0.00,West,274,0.0,0.0,77,0.00,,---,0.16,VWS V14.00,2013-05-09 04:21:00,
2013-05-08 22:22:00,34.0,27.5,0.00,West,274,0.0,0.0,77,0.00,,---,0.16,VWS V14.00,2013-05-09 04:22:00,
2013-05-08 22:26:00,34.0,27.5,0.00,West,274,0.0,0.0,77,0.00,,---,0.16,VWS V14.00,2013-05-09 04:26:00,
2013-05-08 22:27:00,34.0,27.5,0.00,West,274,0.0,0.0,77,0.00,,---,0.16,VWS V14.00,2013-05-09 04:27:00,
2013-05-08 22:31:00,34.0,27.5,0.00,West,274,0.0,0.0,77,0.00,,---,0.16,VWS V14.00,2013-05-09 04:31:00,
2013-05-08 22:32:00,34.0,27.5,0.00,West,274,0.0,0.0,77,0.00,,---,0.16,VWS V14.00,2013-05-09 04:32:00,
2013-05-08 22:36:00,34.0,27.5,0.00,West,273,0.0,0.0,77,0.00,,---,0.16,VWS V14.00,2013-05-09 04:36:00,
2013-05-08 22:37:00,34.0,27.5,0.00,West,273,0.0,0.0,77,0.00,,---,0.16,VWS V14.00,2013-05-09 04:37:00,
2013-05-08 22:41:00,34.0,27.5,0.00,West,265,0.0,0.0,77,0.00,,---,0.16,VWS V14.00,2013-05-09 04:41:00,
2013-05-08 22:42:00,34.0,27.5,0.00,West,268,0.0,0.0,77,0.00,,---,0.16,VWS V14.00,2013-05-09 04:42:00,
2013-05-08 22:46:00,34.0,27.9,0.00,West,274,0.0,0.0,78,0.00,,---,0.16,VWS V14.00,2013-05-09 04:46:00,
2013-05-08 22:47:00,34.0,27.9,0.00,West,274,0.0,0.0,78,0.00,,---,0.16,VWS V14.00,2013-05-09 04:47:00,
2013-05-08 22:52:00,34.0,27.9,0.00,West,274,0.0,0.0,78,0.00,,---,0.16,VWS V14.00,2013-05-09 04:52:00,
2013-05-08 22:57:00,34.0,27.9,0.00,West,274,0.0,0.0,78,0.00,,---,0.16,VWS V14.00,2013-05-09 04:57:00,
2013-05-08 22:58:00,34.0,27.5,0.00,West,274,0.0,0.0,77,0.00,,---,0.16,VWS V14.00,2013-05-09 04:58:00,
2013-05-08 23:02:00,33.8,27.4,0.00,West,274,0.0,0.0,77,0.00,,---,0.16,VWS V14.00,2013-05-09 05:02:00,
2013-05-08 23:03:00,33.8,27.7,0.00,West,274,0.0,0.0,78,0.00,,---,0.16,VWS V14.00,2013-05-09 05:03:00,
2013-05-08 23:07:00,33.8,27.7,0.00,West,270,0.0,0.0,78,0.00,,---,0.16,VWS V14.00,2013-05-09 05:07:00,
2013-05-08 23:08:00,33.8,27.7,0.00,West,270,0.0,0.0,78,0.00,,---,0.16,VWS V14.00,2013-05-09 05:08:00,
2013-05-08 23:12:00,33.8,27.7,0.00,West,270,0.0,0.0,78,0.00,,---,0.16,VWS V14.00,2013-05-09 05:12:00,
2013-05-08 23:13:00,33.8,27.7,0.00,West,268,0.0,0.0,78,0.00,,---,0.16,VWS V14.00,2013-05-09 05:13:00,
2013-05-08 23:17:00,33.8,27.7,0.00,West,263,0.0,0.0,78,0.00,,---,0.16,VWS V14.00,2013-05-09 05:17:00,
2013-05-08 23:18:00,33.8,27.7,0.00,West,264,0.0,0.0,78,0.00,,---,0.16,VWS V14.00,2013-05-09 05:18:00,
2013-05-08 23:22:00,33.8,27.7,0.00,West,263,0.0,0.0,78,0.00,,---,0.16,VWS V14.00,2013-05-09 05:22:00,
2013-05-08 23:23:00,33.8,27.7,0.00,West,270,0.0,0.0,78,0.00,,---,0.16,VWS V14.00,2013-05-09 05:23:00,
2013-05-08 23:24:00,33.8,27.7,0.00,West,263,0.0,0.0,78,0.00,,---,0.16,VWS V14.00,2013-05-09 05:24:00,
2013-05-08 23:27:00,33.8,27.7,0.00,West,270,0.0,0.0,78,0.00,,---,0.16,VWS V14.00,2013-05-09 05:27:00,
2013-05-08 23:28:00,33.8,27.4,0.00,West,265,0.0,0.0,77,0.00,,---,0.16,VWS V14.00,2013-05-09 05:28:00,
2013-05-08 23:29:00,33.8,27.4,0.00,West,270,0.0,0.0,77,0.00,,---,0.16,VWS V14.00,2013-05-09 05:29:00,
2013-05-08 23:32:00,33.8,27.4,0.00,West,270,0.0,0.0,77,0.00,,---,0.16,VWS V14.00,2013-05-09 05:32:00,
2013-05-08 23:33:00,33.8,27.4,0.00,West,270,0.0,0.0,77,0.00,,---,0.16,VWS V14.00,2013-05-09 05:33:00,
2013-05-08 23:34:00,33.8,27.4,0.00,West,271,0.0,0.0,77,0.00,,---,0.16,VWS V14.00,2013-05-09 05:34:00,
2013-05-08 23:37:00,33.8,27.4,0.00,West,268,0.0,0.0,77,0.00,,---,0.16,VWS V14.00,2013-05-09 05:37:00,
2013-05-08 23:38:00,33.8,27.4,0.00,West,263,0.0,0.0,77,0.00,,---,0.16,VWS V14.00,2013-05-09 05:38:00,
2013-05-08 23:39:00,33.8,27.4,0.00,West,268,0.0,0.0,77,0.00,,---,0.16,VWS V14.00,2013-05-09 05:39:00,
2013-05-08 23:42:00,33.8,27.4,0.00,West,263,0.0,0.0,77,0.00,,---,0.16,VWS V14.00,2013-05-09 05:42:00,
2013-05-08 23:43:00,33.8,27.4,0.00,West,271,0.0,0.0,77,0.00,,---,0.16,VWS V14.00,2013-05-09 05:43:00,
2013-05-08 23:44:00,33.8,27.7,0.00,West,270,0.0,0.0,78,0.00,,---,0.16,VWS V14.00,2013-05-09 05:44:00,
2013-05-08 23:47:00,33.8,27.7,0.00,West,270,0.0,0.0,78,0.00,,---,0.16,VWS V14.00,2013-05-09 05:47:00,
2013-05-08 23:48:00,33.8,27.7,0.00,West,271,0.0,0.0,78,0.00,,---,0.16,VWS V14.00,2013-05-09 05:48:00,
2013-05-08 23:50:00,33.8,27.7,0.00,West,270,0.0,0.0,78,0.00,,---,0.16,VWS V14.00,2013-05-09 05:50:00,
2013-05-08 23:53:00,33.8,27.7,0.00,West,270,0.0,0.0,78,0.00,,---,0.16,VWS V14.00,2013-05-09 05:53:00,
2013-05-08 23:55:00,33.8,27.7,0.00,West,270,0.0,0.0,78,0.00,,---,0.00,VWS V14.00,2013-05-09 05:55:00,
2013-05-08 23:58:00,33.8,27.7,0.00,West,271,0.0,0.0,78,0.00,,---,0.00,VWS V14.00,2013-05-09 05:58:00,
2013-05-08 23:59:00,33.8,27.7,0.00,West,271,0.0,0.0,78,0.00,,---,0.00,VWS V14.00,2013-05-09 05:59:00,